Observation data for Happy on 07/11/2018      Previous  Date       Current Mesonet Observations  Soil Data  Daily Summary Page  Observations in Plain Language
KHA2 110501Z 18006KT 22/16 A3017 RMK A01 T02150163  RH  072%=      5-min Rain = 0
KHA2 110502Z 18006KT 21/16 A3017 RMK A01 T02140163  RH  073%=      5-min Rain = 0
KHA2 110503Z 18005KT 21/16 A3017 RMK A01 T02130163  RH  073%=      5-min Rain = 0
KHA2 110504Z 18005KT 21/16 A3017 RMK A01 T02130163  RH  073%=      5-min Rain = 0
KHA2 110505Z 18005KT 21/16 A3017 RMK A01 T02120163  RH  073%=      5-min Rain = 0
KHA2 110506Z 17005KT 21/16 A3017 RMK A01 T02120163  RH  074%=      5-min Rain = 0
KHA2 110507Z 17005KT 21/16 A3017 RMK A01 T02110163  RH  074%=      5-min Rain = 0
KHA2 110508Z 16005KT 21/16 A3017 RMK A01 T02110163  RH  074%=      5-min Rain = 0
KHA2 110509Z 16005KT 21/16 A3017 RMK A01 T02100163  RH  074%=      5-min Rain = 0
KHA2 110510Z 16005KT 21/16 A3017 RMK A01 T02090163  RH  075%=      5-min Rain = 0
KHA2 110511Z 15005KT 21/16 A3017 RMK A01 T02090163  RH  075%=      5-min Rain = 0
KHA2 110512Z 15005KT 21/16 A3017 RMK A01 T02080163  RH  075%=      5-min Rain = 0
KHA2 110513Z 15005KT 21/16 A3017 RMK A01 T02080163  RH  075%=      5-min Rain = 0
KHA2 110514Z 15005KT 21/16 A3017 RMK A01 T02070162  RH  075%=      5-min Rain = 0
KHA2 110515Z 15005KT 21/16 A3017 RMK A01 T02070162  RH  076%=      5-min Rain = 0
KHA2 110516Z 15005KT 21/16 A3017 RMK A01 T02060162  RH  076%=      5-min Rain = 0
KHA2 110517Z 15005KT 21/16 A3017 RMK A01 T02060161  RH  076%=      5-min Rain = 0
KHA2 110518Z 15005KT 21/16 A3017 RMK A01 T02060162  RH  076%=      5-min Rain = 0
KHA2 110519Z 16005KT 21/16 A3017 RMK A01 T02050162  RH  076%=      5-min Rain = 0
KHA2 110520Z 16004KT 21/16 A3017 RMK A01 T02050162  RH  077%=      5-min Rain = 0
KHA2 110521Z 16004KT 20/16 A3017 RMK A01 T02040162  RH  077%=      5-min Rain = 0
KHA2 110522Z 16004KT 20/16 A3017 RMK A01 T02040161  RH  077%=      5-min Rain = 0
KHA2 110523Z 16005KT 20/16 A3017 RMK A01 T02030162  RH  077%=      5-min Rain = 0
KHA2 110524Z 16004KT 20/16 A3017 RMK A01 T02030162  RH  077%=      5-min Rain = 0
KHA2 110525Z 16004KT 20/16 A3017 RMK A01 T02030161  RH  077%=      5-min Rain = 0
KHA2 110526Z 16004KT 20/16 A3017 RMK A01 T02020161  RH  077%=      5-min Rain = 0
KHA2 110527Z 16005KT 20/16 A3017 RMK A01 T02010161  RH  078%=      5-min Rain = 0
KHA2 110528Z 16005KT 20/16 A3017 RMK A01 T02010162  RH  078%=      5-min Rain = 0
KHA2 110529Z 16005KT 20/16 A3017 RMK A01 T02010162  RH  078%=      5-min Rain = 0
KHA2 110530Z 16005KT 20/16 A3017 RMK A01 T02000162  RH  079%=      5-min Rain = 0
KHA2 110531Z 15005KT 20/16 A3017 RMK A01 T02000162  RH  079%=      5-min Rain = 0
KHA2 110532Z 15005KT 20/16 A3018 RMK A01 T02000163  RH  079%=      5-min Rain = 0
KHA2 110533Z 15005KT 20/16 A3018 RMK A01 T02000163  RH  079%=      5-min Rain = 0
KHA2 110534Z 15005KT 20/16 A3018 RMK A01 T01990163  RH  079%=      5-min Rain = 0
KHA2 110535Z 15005KT 20/16 A3018 RMK A01 T01990163  RH  080%=      5-min Rain = 0
KHA2 110536Z 15004KT 20/16 A3018 RMK A01 T01990163  RH  080%=      5-min Rain = 0
KHA2 110537Z 15004KT 20/16 A3018 RMK A01 T02000163  RH  079%=      5-min Rain = 0
KHA2 110538Z 15004KT 20/16 A3018 RMK A01 T01990163  RH  079%=      5-min Rain = 0
KHA2 110539Z 15004KT 20/16 A3018 RMK A01 T01990162  RH  079%=      5-min Rain = 0
KHA2 110540Z 15004KT 20/16 A3018 RMK A01 T01990162  RH  079%=      5-min Rain = 0
KHA2 110541Z 15004KT 20/16 A3018 RMK A01 T01990162  RH  079%=      5-min Rain = 0
KHA2 110542Z 15004KT 20/16 A3018 RMK A01 T02000162  RH  079%=      5-min Rain = 0
KHA2 110543Z 15004KT 20/16 A3018 RMK A01 T01990162  RH  079%=      5-min Rain = 0
KHA2 110544Z 15004KT 20/16 A3018 RMK A01 T01990161  RH  079%=      5-min Rain = 0
KHA2 110545Z 15004KT 20/16 A3018 RMK A01 T02000161  RH  079%=      5-min Rain = 0
KHA2 110546Z 15004KT 20/16 A3018 RMK A01 T02000162  RH  079%=      5-min Rain = 0
KHA2 110547Z 15004KT 20/16 A3018 RMK A01 T02000162  RH  078%=      5-min Rain = 0
KHA2 110548Z 15004KT 20/16 A3018 RMK A01 T02010162  RH  078%=      5-min Rain = 0
KHA2 110549Z 15004KT 20/16 A3018 RMK A01 T02010162  RH  078%=      5-min Rain = 0
KHA2 110550Z 15004KT 20/16 A3018 RMK A01 T02010161  RH  078%=      5-min Rain = 0
KHA2 110551Z 15004KT 20/16 A3018 RMK A01 T02020161  RH  077%=      5-min Rain = 0
KHA2 110552Z 15004KT 20/16 A3018 RMK A01 T02020161  RH  077%=      5-min Rain = 0
KHA2 110553Z 15005KT 20/16 A3018 RMK A01 T02020162  RH  077%=      5-min Rain = 0
KHA2 110554Z 15005KT 20/16 A3018 RMK A01 T02020161  RH  077%=      5-min Rain = 0
KHA2 110555Z 15005KT 20/16 A3018 RMK A01 T02020161  RH  077%=      5-min Rain = 0
KHA2 110556Z 15005KT 20/16 A3018 RMK A01 T02020161  RH  077%=      5-min Rain = 0
KHA2 110557Z 15005KT 20/16 A3018 RMK A01 T02020161  RH  077%=      5-min Rain = 0
KHA2 110558Z 15005KT 20/16 A3018 RMK A01 T02020161  RH  077%=      5-min Rain = 0
KHA2 110559Z 15005KT 20/16 A3018 RMK A01 T02020162  RH  077%=      5-min Rain = 0
KHA2 110600Z 15004KT 20/16 A3018 RMK A01 T02020162  RH  078%=      5-min Rain = 0
KHA2 110601Z 15004KT 20/16 A3018 RMK A01 T02020162  RH  078%=      5-min Rain = 0
KHA2 110602Z 14004KT 20/16 A3018 RMK A01 T02010161  RH  078%=      5-min Rain = 0
KHA2 110603Z 14005KT 20/16 A3018 RMK A01 T02010161  RH  078%=      5-min Rain = 0
KHA2 110604Z 14005KT 20/16 A3018 RMK A01 T02000161  RH  078%=      5-min Rain = 0
KHA2 110605Z 14004KT 20/16 A3018 RMK A01 T02000161  RH  078%=      5-min Rain = 0
KHA2 110606Z 14004KT 20/16 A3018 RMK A01 T01990161  RH  078%=      5-min Rain = 0
KHA2 110607Z 13004KT 20/16 A3018 RMK A01 T01990160  RH  078%=      5-min Rain = 0
KHA2 110608Z 14004KT 20/16 A3018 RMK A01 T01980160  RH  079%=      5-min Rain = 0
KHA2 110609Z 14004KT 20/16 A3018 RMK A01 T01980160  RH  079%=      5-min Rain = 0
KHA2 110610Z 14004KT 20/16 A3018 RMK A01 T01970159  RH  079%=      5-min Rain = 0
KHA2 110611Z 14004KT 20/16 A3018 RMK A01 T01970159  RH  079%=      5-min Rain = 0
KHA2 110612Z 14004KT 20/16 A3018 RMK A01 T01970159  RH  079%=      5-min Rain = 0
KHA2 110613Z 14004KT 20/16 A3018 RMK A01 T01980159  RH  078%=      5-min Rain = 0
KHA2 110614Z 14004KT 20/16 A3018 RMK A01 T01990159  RH  078%=      5-min Rain = 0
KHA2 110615Z 14004KT 20/16 A3018 RMK A01 T01990159  RH  078%=      5-min Rain = 0
KHA2 110616Z 14004KT 20/16 A3018 RMK A01 T02000159  RH  077%=      5-min Rain = 0
KHA2 110617Z 14004KT 20/16 A3018 RMK A01 T02000159  RH  077%=      5-min Rain = 0
KHA2 110618Z 14004KT 20/16 A3018 RMK A01 T02010159  RH  077%=      5-min Rain = 0
KHA2 110619Z 14004KT 20/16 A3018 RMK A01 T02010159  RH  077%=      5-min Rain = 0
KHA2 110620Z 14004KT 20/16 A3018 RMK A01 T02010159  RH  077%=      5-min Rain = 0
KHA2 110621Z 14004KT 20/16 A3018 RMK A01 T02010159  RH  077%=      5-min Rain = 0
KHA2 110622Z 14003KT 20/16 A3018 RMK A01 T02010160  RH  077%=      5-min Rain = 0
KHA2 110623Z 14003KT 20/16 A3018 RMK A01 T02010160  RH  077%=      5-min Rain = 0
KHA2 110624Z 14003KT 20/16 A3018 RMK A01 T02010160  RH  077%=      5-min Rain = 0
KHA2 110625Z 13003KT 20/16 A3018 RMK A01 T02010160  RH  077%=      5-min Rain = 0
KHA2 110626Z 13003KT 20/16 A3018 RMK A01 T02010159  RH  077%=      5-min Rain = 0
KHA2 110627Z 12003KT 20/16 A3018 RMK A01 T02010160  RH  077%=      5-min Rain = 0
KHA2 110628Z 13003KT 20/16 A3018 RMK A01 T02010162  RH  078%=      5-min Rain = 0
KHA2 110629Z 13002KT 20/16 A3018 RMK A01 T02010162  RH  078%=      5-min Rain = 0
KHA2 110630Z 12002KT 20/16 A3018 RMK A01 T02010162  RH  078%=      5-min Rain = 0
KHA2 110631Z 12002KT 20/16 A3018 RMK A01 T02000162  RH  079%=      5-min Rain = 0
KHA2 110632Z 12002KT 20/16 A3018 RMK A01 T02000162  RH  079%=      5-min Rain = 0
KHA2 110633Z 13002KT 20/16 A3018 RMK A01 T02000163  RH  079%=      5-min Rain = 0
KHA2 110634Z 13001KT 20/16 A3018 RMK A01 T02000162  RH  079%=      5-min Rain = 0
KHA2 110635Z 14002KT 20/16 A3018 RMK A01 T02000162  RH  079%=      5-min Rain = 0
KHA2 110636Z 14001KT 20/16 A3018 RMK A01 T02000161  RH  079%=      5-min Rain = 0
KHA2 110637Z 14001KT 20/16 A3018 RMK A01 T01990162  RH  079%=      5-min Rain = 0
KHA2 110638Z 14001KT 20/16 A3018 RMK A01 T01990162  RH  079%=      5-min Rain = 0
KHA2 110639Z 14001KT 20/16 A3018 RMK A01 T01980162  RH  079%=      5-min Rain = 0
KHA2 110640Z 15001KT 20/16 A3018 RMK A01 T01980162  RH  080%=      5-min Rain = 0
KHA2 110641Z 15001KT 20/16 A3018 RMK A01 T01970162  RH  080%=      5-min Rain = 0
KHA2 110642Z 15001KT 20/16 A3018 RMK A01 T01970162  RH  080%=      5-min Rain = 0
KHA2 110643Z 15002KT 20/16 A3019 RMK A01 T01970162  RH  080%=      5-min Rain = 0
KHA2 110644Z 15002KT 20/16 A3019 RMK A01 T01960161  RH  080%=      5-min Rain = 0
KHA2 110645Z 15002KT 20/16 A3019 RMK A01 T01960161  RH  080%=      5-min Rain = 0
KHA2 110646Z 15002KT 20/16 A3019 RMK A01 T01960161  RH  080%=      5-min Rain = 0
KHA2 110647Z 16002KT 20/16 A3019 RMK A01 T01950160  RH  080%=      5-min Rain = 0
KHA2 110648Z 16002KT 20/16 A3018 RMK A01 T01960160  RH  080%=      5-min Rain = 0
KHA2 110649Z 15003KT 20/16 A3018 RMK A01 T01960160  RH  080%=      5-min Rain = 0
KHA2 110650Z 15003KT 20/16 A3018 RMK A01 T01960160  RH  079%=      5-min Rain = 0
KHA2 110651Z 16003KT 20/16 A3018 RMK A01 T01960159  RH  079%=      5-min Rain = 0
KHA2 110652Z 16003KT 20/16 A3018 RMK A01 T01970159  RH  079%=      5-min Rain = 0
KHA2 110653Z 15003KT 20/16 A3018 RMK A01 T01970159  RH  079%=      5-min Rain = 0
KHA2 110654Z 15003KT 20/16 A3018 RMK A01 T01970159  RH  079%=      5-min Rain = 0
KHA2 110655Z 15003KT 20/16 A3018 RMK A01 T01970159  RH  078%=      5-min Rain = 0
KHA2 110656Z 16003KT 20/16 A3018 RMK A01 T01970159  RH  078%=      5-min Rain = 0
KHA2 110657Z 16004KT 20/16 A3018 RMK A01 T01970158  RH  078%=      5-min Rain = 0
KHA2 110658Z 16004KT 20/16 A3018 RMK A01 T01970158  RH  078%=      5-min Rain = 0
KHA2 110659Z 16003KT 20/16 A3018 RMK A01 T01970158  RH  078%=      5-min Rain = 0
KHA2 110700Z 16003KT 20/16 A3018 RMK A01 T01960158  RH  079%=      5-min Rain = 0
KHA2 110701Z 16004KT 20/16 A3018 RMK A01 T01960158  RH  079%=      5-min Rain = 0
KHA2 110702Z 16003KT 20/16 A3018 RMK A01 T01960158  RH  079%=      5-min Rain = 0
KHA2 110703Z 16003KT 20/16 A3018 RMK A01 T01960158  RH  079%=      5-min Rain = 0
KHA2 110704Z 17004KT 20/16 A3018 RMK A01 T01950158  RH  079%=      5-min Rain = 0
KHA2 110705Z 16004KT 19/16 A3018 RMK A01 T01940158  RH  079%=      5-min Rain = 0
KHA2 110706Z 16004KT 19/16 A3018 RMK A01 T01940158  RH  080%=      5-min Rain = 0
KHA2 110707Z 16004KT 19/16 A3018 RMK A01 T01940158  RH  080%=      5-min Rain = 0
KHA2 110708Z 17004KT 19/16 A3018 RMK A01 T01940158  RH  080%=      5-min Rain = 0
KHA2 110709Z 17004KT 19/16 A3018 RMK A01 T01940158  RH  080%=      5-min Rain = 0
KHA2 110710Z 17004KT 19/16 A3018 RMK A01 T01940158  RH  080%=      5-min Rain = 0
KHA2 110711Z 17004KT 19/16 A3018 RMK A01 T01940158  RH  080%=      5-min Rain = 0
KHA2 110712Z 17004KT 19/16 A3018 RMK A01 T01930158  RH  080%=      5-min Rain = 0
KHA2 110713Z 18004KT 19/16 A3018 RMK A01 T01930157  RH  080%=      5-min Rain = 0
KHA2 110714Z 18005KT 19/16 A3018 RMK A01 T01920157  RH  080%=      5-min Rain = 0
KHA2 110715Z 18005KT 19/16 A3018 RMK A01 T01910157  RH  080%=      5-min Rain = 0
KHA2 110716Z 18005KT 19/16 A3018 RMK A01 T01910157  RH  081%=      5-min Rain = 0
KHA2 110717Z 18006KT 19/16 A3018 RMK A01 T01900157  RH  081%=      5-min Rain = 0
KHA2 110718Z 18006KT 19/16 A3018 RMK A01 T01900157  RH  081%=      5-min Rain = 0
KHA2 110719Z 18006KT 19/16 A3018 RMK A01 T01890157  RH  082%=      5-min Rain = 0
KHA2 110720Z 18006KT 19/16 A3018 RMK A01 T01890158  RH  082%=      5-min Rain = 0
KHA2 110721Z 18006KT 19/16 A3018 RMK A01 T01890158  RH  082%=      5-min Rain = 0
KHA2 110722Z 18006KT 19/16 A3018 RMK A01 T01880158  RH  082%=      5-min Rain = 0
KHA2 110723Z 18007KT 19/16 A3018 RMK A01 T01890158  RH  083%=      5-min Rain = 0
KHA2 110724Z 18007KT 19/16 A3018 RMK A01 T01890159  RH  083%=      5-min Rain = 0
KHA2 110725Z 18007KT 19/16 A3018 RMK A01 T01880158  RH  083%=      5-min Rain = 0
KHA2 110726Z 18007KT 19/16 A3018 RMK A01 T01890159  RH  083%=      5-min Rain = 0
KHA2 110727Z 18007KT 19/16 A3018 RMK A01 T01890159  RH  083%=      5-min Rain = 0
KHA2 110728Z 18007KT 19/16 A3018 RMK A01 T01900159  RH  082%=      5-min Rain = 0
KHA2 110729Z 19006KT 19/16 A3018 RMK A01 T01900159  RH  082%=      5-min Rain = 0
KHA2 110730Z 19006KT 19/16 A3018 RMK A01 T01890159  RH  083%=      5-min Rain = 0
KHA2 110731Z 20006KT 19/16 A3018 RMK A01 T01890160  RH  083%=      5-min Rain = 0
KHA2 110732Z 20006KT 19/16 A3018 RMK A01 T01900160  RH  083%=      5-min Rain = 0
KHA2 110733Z 20006KT 19/16 A3018 RMK A01 T01900161  RH  083%=      5-min Rain = 0
KHA2 110734Z 20007KT 19/16 A3018 RMK A01 T01910161  RH  083%=      5-min Rain = 0
KHA2 110735Z 20006KT 19/16 A3018 RMK A01 T01920161  RH  083%=      5-min Rain = 0
KHA2 110736Z 20006KT 19/16 A3018 RMK A01 T01920161  RH  082%=      5-min Rain = 0
KHA2 110737Z 19005KT 19/16 A3018 RMK A01 T01930162  RH  082%=      5-min Rain = 0
KHA2 110738Z 19005KT 19/16 A3018 RMK A01 T01930162  RH  082%=      5-min Rain = 0
KHA2 110739Z 19005KT 19/16 A3018 RMK A01 T01920161  RH  082%=      5-min Rain = 0
KHA2 110740Z 19006KT 19/16 A3018 RMK A01 T01910161  RH  083%=      5-min Rain = 0
KHA2 110741Z 20006KT 19/16 A3018 RMK A01 T01900161  RH  083%=      5-min Rain = 0
KHA2 110742Z 20006KT 19/16 A3018 RMK A01 T01890160  RH  083%=      5-min Rain = 0
KHA2 110743Z 20006KT 19/16 A3018 RMK A01 T01880160  RH  084%=      5-min Rain = 0
KHA2 110744Z 20006KT 19/16 A3018 RMK A01 T01880160  RH  084%=      5-min Rain = 0
KHA2 110745Z 20006KT 19/16 A3018 RMK A01 T01880160  RH  084%=      5-min Rain = 0
KHA2 110746Z 19006KT 19/16 A3018 RMK A01 T01880160  RH  084%=      5-min Rain = 0
KHA2 110747Z 19006KT 19/16 A3018 RMK A01 T01890159  RH  083%=      5-min Rain = 0
KHA2 110748Z 19006KT 19/16 A3018 RMK A01 T01890159  RH  083%=      5-min Rain = 0
KHA2 110749Z 19006KT 19/16 A3018 RMK A01 T01890160  RH  083%=      5-min Rain = 0
KHA2 110750Z 20006KT 19/16 A3018 RMK A01 T01890159  RH  083%=      5-min Rain = 0
KHA2 110751Z 20006KT 19/16 A3018 RMK A01 T01890159  RH  083%=      5-min Rain = 0
KHA2 110752Z 19005KT 19/16 A3018 RMK A01 T01890159  RH  083%=      5-min Rain = 0
KHA2 110753Z 19005KT 19/16 A3018 RMK A01 T01890158  RH  083%=      5-min Rain = 0
KHA2 110754Z 19005KT 19/16 A3018 RMK A01 T01880158  RH  083%=      5-min Rain = 0
KHA2 110755Z 19006KT 19/16 A3018 RMK A01 T01880158  RH  083%=      5-min Rain = 0
KHA2 110756Z 20005KT 19/16 A3018 RMK A01 T01880159  RH  083%=      5-min Rain = 0
KHA2 110757Z 20005KT 19/16 A3018 RMK A01 T01880159  RH  083%=      5-min Rain = 0
KHA2 110758Z 20005KT 19/16 A3018 RMK A01 T01880158  RH  083%=      5-min Rain = 0
KHA2 110759Z 20005KT 19/16 A3018 RMK A01 T01880158  RH  083%=      5-min Rain = 0
KHA2 110800Z 20005KT 19/16 A3018 RMK A01 T01880159  RH  083%=      5-min Rain = 0
KHA2 110801Z 20005KT 19/16 A3018 RMK A01 T01880158  RH  083%=      5-min Rain = 0
KHA2 110802Z 20005KT 19/16 A3018 RMK A01 T01880158  RH  083%=      5-min Rain = 0
KHA2 110803Z 20005KT 19/16 A3018 RMK A01 T01880158  RH  083%=      5-min Rain = 0
KHA2 110804Z 21005KT 19/16 A3018 RMK A01 T01880159  RH  083%=      5-min Rain = 0
KHA2 110805Z 21005KT 19/16 A3018 RMK A01 T01880159  RH  083%=      5-min Rain = 0
KHA2 110806Z 21005KT 19/16 A3018 RMK A01 T01880158  RH  083%=      5-min Rain = 0
KHA2 110807Z 21005KT 19/16 A3018 RMK A01 T01870158  RH  083%=      5-min Rain = 0
KHA2 110808Z 21005KT 19/16 A3018 RMK A01 T01880158  RH  083%=      5-min Rain = 0
KHA2 110809Z 21005KT 19/16 A3017 RMK A01 T01880158  RH  083%=      5-min Rain = 0
KHA2 110810Z 20005KT 19/16 A3017 RMK A01 T01870157  RH  083%=      5-min Rain = 0
KHA2 110811Z 20006KT 19/16 A3017 RMK A01 T01880158  RH  083%=      5-min Rain = 0
KHA2 110812Z 20005KT 19/16 A3017 RMK A01 T01870157  RH  083%=      5-min Rain = 0
KHA2 110813Z 20005KT 19/16 A3017 RMK A01 T01870157  RH  083%=      5-min Rain = 0
KHA2 110814Z 21005KT 19/16 A3017 RMK A01 T01870157  RH  083%=      5-min Rain = 0
KHA2 110815Z 21005KT 19/16 A3017 RMK A01 T01860157  RH  083%=      5-min Rain = 0
KHA2 110816Z 20006KT 19/16 A3017 RMK A01 T01860157  RH  083%=      5-min Rain = 0
KHA2 110817Z 20006KT 19/16 A3017 RMK A01 T01860156  RH  083%=      5-min Rain = 0
KHA2 110818Z 20006KT 19/16 A3017 RMK A01 T01860156  RH  082%=      5-min Rain = 0
KHA2 110819Z 20006KT 19/16 A3017 RMK A01 T01860155  RH  082%=      5-min Rain = 0
KHA2 110820Z 20006KT 19/16 A3017 RMK A01 T01860155  RH  082%=      5-min Rain = 0
KHA2 110821Z 20006KT 19/16 A3017 RMK A01 T01860155  RH  082%=      5-min Rain = 0
KHA2 110822Z 20006KT 19/16 A3017 RMK A01 T01860155  RH  082%=      5-min Rain = 0
KHA2 110823Z 20006KT 19/16 A3017 RMK A01 T01860155  RH  082%=      5-min Rain = 0
KHA2 110824Z 20006KT 19/16 A3017 RMK A01 T01860155  RH  082%=      5-min Rain = 0
KHA2 110825Z 20006KT 19/16 A3017 RMK A01 T01860156  RH  083%=      5-min Rain = 0
KHA2 110826Z 20006KT 19/16 A3017 RMK A01 T01860156  RH  083%=      5-min Rain = 0
KHA2 110827Z 20006KT 19/16 A3017 RMK A01 T01860156  RH  083%=      5-min Rain = 0
KHA2 110828Z 20006KT 19/16 A3017 RMK A01 T01850156  RH  083%=      5-min Rain = 0
KHA2 110829Z 20006KT 19/16 A3017 RMK A01 T01850156  RH  083%=      5-min Rain = 0
KHA2 110830Z 20006KT 19/16 A3017 RMK A01 T01850156  RH  083%=      5-min Rain = 0
KHA2 110831Z 21006KT 19/16 A3017 RMK A01 T01860156  RH  083%=      5-min Rain = 0
KHA2 110832Z 21006KT 19/16 A3017 RMK A01 T01860156  RH  083%=      5-min Rain = 0
KHA2 110833Z 21007KT 19/16 A3017 RMK A01 T01870157  RH  083%=      5-min Rain = 0
KHA2 110834Z 21007KT 19/16 A3017 RMK A01 T01870157  RH  083%=      5-min Rain = 0
KHA2 110835Z 21007KT 19/16 A3017 RMK A01 T01870157  RH  082%=      5-min Rain = 0
KHA2 110836Z 21007KT 19/16 A3017 RMK A01 T01880156  RH  082%=      5-min Rain = 0
KHA2 110837Z 21007KT 19/16 A3017 RMK A01 T01880156  RH  082%=      5-min Rain = 0
KHA2 110838Z 21007KT 19/16 A3017 RMK A01 T01880156  RH  082%=      5-min Rain = 0
KHA2 110839Z 21007KT 19/16 A3017 RMK A01 T01880156  RH  082%=      5-min Rain = 0
KHA2 110840Z 21007KT 19/16 A3017 RMK A01 T01880156  RH  082%=      5-min Rain = 0
KHA2 110841Z 21007KT 19/16 A3017 RMK A01 T01880156  RH  082%=      5-min Rain = 0
KHA2 110842Z 21007KT 19/16 A3017 RMK A01 T01880157  RH  082%=      5-min Rain = 0
KHA2 110843Z 21007KT 19/16 A3017 RMK A01 T01890157  RH  082%=      5-min Rain = 0
KHA2 110844Z 21007KT 19/16 A3017 RMK A01 T01880157  RH  082%=      5-min Rain = 0
KHA2 110845Z 21007KT 19/16 A3017 RMK A01 T01880158  RH  082%=      5-min Rain = 0
KHA2 110846Z 21007KT 19/16 A3017 RMK A01 T01880158  RH  082%=      5-min Rain = 0
KHA2 110847Z 21007KT 19/16 A3017 RMK A01 T01880157  RH  082%=      5-min Rain = 0
KHA2 110848Z 20007KT 19/16 A3017 RMK A01 T01880157  RH  082%=      5-min Rain = 0
KHA2 110849Z 20007KT 19/16 A3017 RMK A01 T01880157  RH  082%=      5-min Rain = 0
KHA2 110850Z 20007KT 19/16 A3017 RMK A01 T01870156  RH  082%=      5-min Rain = 0
KHA2 110851Z 20007KT 19/16 A3017 RMK A01 T01870155  RH  082%=      5-min Rain = 0
KHA2 110852Z 20007KT 19/16 A3017 RMK A01 T01870156  RH  082%=      5-min Rain = 0
KHA2 110853Z 20007KT 19/16 A3017 RMK A01 T01860155  RH  082%=      5-min Rain = 0
KHA2 110854Z 20007KT 19/16 A3017 RMK A01 T01860155  RH  082%=      5-min Rain = 0
KHA2 110855Z 20007KT 19/16 A3017 RMK A01 T01850155  RH  083%=      5-min Rain = 0
KHA2 110856Z 20007KT 19/16 A3017 RMK A01 T01850155  RH  083%=      5-min Rain = 0
KHA2 110857Z 20007KT 19/16 A3017 RMK A01 T01850155  RH  083%=      5-min Rain = 0
KHA2 110858Z 20006KT 19/16 A3017 RMK A01 T01850155  RH  083%=      5-min Rain = 0
KHA2 110859Z 20007KT 19/16 A3017 RMK A01 T01850155  RH  083%=      5-min Rain = 0
KHA2 110900Z 20007KT 19/16 A3017 RMK A01 T01850155  RH  083%=      5-min Rain = 0
KHA2 110901Z 20007KT 19/16 A3017 RMK A01 T01850155  RH  083%=      5-min Rain = 0
KHA2 110902Z 20007KT 19/16 A3017 RMK A01 T01850155  RH  083%=      5-min Rain = 0
KHA2 110903Z 20007KT 19/16 A3017 RMK A01 T01850155  RH  082%=      5-min Rain = 0
KHA2 110904Z 20007KT 19/16 A3017 RMK A01 T01850155  RH  082%=      5-min Rain = 0
KHA2 110905Z 21007KT 19/16 A3017 RMK A01 T01860155  RH  082%=      5-min Rain = 0
KHA2 110906Z 21007KT 19/16 A3017 RMK A01 T01860155  RH  082%=      5-min Rain = 0
KHA2 110907Z 21007KT 19/16 A3017 RMK A01 T01860155  RH  082%=      5-min Rain = 0
KHA2 110908Z 21007KT 19/16 A3017 RMK A01 T01860155  RH  082%=      5-min Rain = 0
KHA2 110909Z 21007KT 19/16 A3017 RMK A01 T01860155  RH  083%=      5-min Rain = 0
KHA2 110910Z 21007KT 19/16 A3017 RMK A01 T01860156  RH  083%=      5-min Rain = 0
KHA2 110911Z 21007KT 19/16 A3017 RMK A01 T01850155  RH  083%=      5-min Rain = 0
KHA2 110912Z 21007KT 19/16 A3017 RMK A01 T01850156  RH  083%=      5-min Rain = 0
KHA2 110913Z 21007KT 19/16 A3017 RMK A01 T01860156  RH  083%=      5-min Rain = 0
KHA2 110914Z 21007KT 19/16 A3017 RMK A01 T01860156  RH  083%=      5-min Rain = 0
KHA2 110915Z 21007KT 19/16 A3017 RMK A01 T01860156  RH  083%=      5-min Rain = 0
KHA2 110916Z 21007KT 19/16 A3017 RMK A01 T01860156  RH  083%=      5-min Rain = 0
KHA2 110917Z 21007KT 19/16 A3017 RMK A01 T01860156  RH  083%=      5-min Rain = 0
KHA2 110918Z 21007KT 19/16 A3017 RMK A01 T01870156  RH  082%=      5-min Rain = 0
KHA2 110919Z 21007KT 19/16 A3017 RMK A01 T01870156  RH  082%=      5-min Rain = 0
KHA2 110920Z 21006KT 19/16 A3017 RMK A01 T01870155  RH  082%=      5-min Rain = 0
KHA2 110921Z 21007KT 19/16 A3016 RMK A01 T01880155  RH  081%=      5-min Rain = 0
KHA2 110922Z 21006KT 19/16 A3016 RMK A01 T01880155  RH  081%=      5-min Rain = 0
KHA2 110923Z 21006KT 19/16 A3016 RMK A01 T01890155  RH  081%=      5-min Rain = 0
KHA2 110924Z 21007KT 19/15 A3016 RMK A01 T01880154  RH  081%=      5-min Rain = 0
KHA2 110925Z 21007KT 19/15 A3016 RMK A01 T01880154  RH  081%=      5-min Rain = 0
KHA2 110926Z 21007KT 19/15 A3016 RMK A01 T01880154  RH  081%=      5-min Rain = 0
KHA2 110927Z 21007KT 19/15 A3016 RMK A01 T01880154  RH  081%=      5-min Rain = 0
KHA2 110928Z 21007KT 19/16 A3016 RMK A01 T01880155  RH  081%=      5-min Rain = 0
KHA2 110929Z 21007KT 19/16 A3016 RMK A01 T01880155  RH  081%=      5-min Rain = 0
KHA2 110930Z 21007KT 19/16 A3016 RMK A01 T01870155  RH  081%=      5-min Rain = 0
KHA2 110931Z 21007KT 19/16 A3016 RMK A01 T01870155  RH  081%=      5-min Rain = 0
KHA2 110932Z 21007KT 19/15 A3016 RMK A01 T01870154  RH  082%=      5-min Rain = 0
KHA2 110933Z 21007KT 19/15 A3016 RMK A01 T01870154  RH  082%=      5-min Rain = 0
KHA2 110934Z 21007KT 19/16 A3016 RMK A01 T01870155  RH  082%=      5-min Rain = 0
KHA2 110935Z 21006KT 19/16 A3016 RMK A01 T01860155  RH  082%=      5-min Rain = 0
KHA2 110936Z 21006KT 19/15 A3016 RMK A01 T01860154  RH  082%=      5-min Rain = 0
KHA2 110937Z 21006KT 19/15 A3016 RMK A01 T01850154  RH  082%=      5-min Rain = 0
KHA2 110938Z 21007KT 19/15 A3016 RMK A01 T01850154  RH  082%=      5-min Rain = 0
KHA2 110939Z 21007KT 18/15 A3016 RMK A01 T01840154  RH  083%=      5-min Rain = 0
KHA2 110940Z 20006KT 18/15 A3016 RMK A01 T01840154  RH  083%=      5-min Rain = 0
KHA2 110941Z 20006KT 18/15 A3016 RMK A01 T01840154  RH  083%=      5-min Rain = 0
KHA2 110942Z 20007KT 18/15 A3016 RMK A01 T01840154  RH  083%=      5-min Rain = 0
KHA2 110943Z 20007KT 18/15 A3016 RMK A01 T01840154  RH  083%=      5-min Rain = 0
KHA2 110944Z 20007KT 18/15 A3016 RMK A01 T01840154  RH  083%=      5-min Rain = 0
KHA2 110945Z 20007KT 18/15 A3017 RMK A01 T01840154  RH  083%=      5-min Rain = 0
KHA2 110946Z 20007KT 18/16 A3016 RMK A01 T01840155  RH  083%=      5-min Rain = 0
KHA2 110947Z 20007KT 18/16 A3016 RMK A01 T01840155  RH  083%=      5-min Rain = 0
KHA2 110948Z 20007KT 18/16 A3016 RMK A01 T01840155  RH  083%=      5-min Rain = 0
KHA2 110949Z 20007KT 18/16 A3017 RMK A01 T01840155  RH  083%=      5-min Rain = 0
KHA2 110950Z 20007KT 19/16 A3017 RMK A01 T01850156  RH  083%=      5-min Rain = 0
KHA2 110951Z 20006KT 19/16 A3016 RMK A01 T01850156  RH  083%=      5-min Rain = 0
KHA2 110952Z 19006KT 19/16 A3016 RMK A01 T01850157  RH  083%=      5-min Rain = 0
KHA2 110953Z 19006KT 19/16 A3016 RMK A01 T01850157  RH  084%=      5-min Rain = 0
KHA2 110954Z 19006KT 19/16 A3016 RMK A01 T01850157  RH  084%=      5-min Rain = 0
KHA2 110955Z 19006KT 19/16 A3016 RMK A01 T01850157  RH  084%=      5-min Rain = 0
KHA2 110956Z 19006KT 18/16 A3016 RMK A01 T01840157  RH  084%=      5-min Rain = 0
KHA2 110957Z 19006KT 18/16 A3016 RMK A01 T01840157  RH  084%=      5-min Rain = 0
KHA2 110958Z 19007KT 18/16 A3016 RMK A01 T01830157  RH  084%=      5-min Rain = 0
KHA2 110959Z 19007KT 18/16 A3016 RMK A01 T01830156  RH  085%=      5-min Rain = 0
KHA2 111000Z 19007KT 18/16 A3016 RMK A01 T01820156  RH  085%=      5-min Rain = 0
KHA2 111001Z 19007KT 18/16 A3016 RMK A01 T01820156  RH  085%=      5-min Rain = 0
KHA2 111002Z 19007KT 18/16 A3016 RMK A01 T01810156  RH  085%=      5-min Rain = 0
KHA2 111003Z 19007KT 18/16 A3016 RMK A01 T01810155  RH  085%=      5-min Rain = 0
KHA2 111004Z 19007KT 18/16 A3016 RMK A01 T01800155  RH  085%=      5-min Rain = 0
KHA2 111005Z 19007KT 18/16 A3016 RMK A01 T01800155  RH  086%=      5-min Rain = 0
KHA2 111006Z 19007KT 18/16 A3016 RMK A01 T01790155  RH  086%=      5-min Rain = 0
KHA2 111007Z 19007KT 18/16 A3016 RMK A01 T01790155  RH  086%=      5-min Rain = 0
KHA2 111008Z 19008KT 18/16 A3016 RMK A01 T01790156  RH  086%=      5-min Rain = 0
KHA2 111009Z 19008KT 18/16 A3016 RMK A01 T01790156  RH  086%=      5-min Rain = 0
KHA2 111010Z 19008KT 18/16 A3016 RMK A01 T01790156  RH  086%=      5-min Rain = 0
KHA2 111011Z 19008KT 18/16 A3016 RMK A01 T01790156  RH  086%=      5-min Rain = 0
KHA2 111012Z 19008KT 18/16 A3016 RMK A01 T01800157  RH  086%=      5-min Rain = 0
KHA2 111013Z 19008KT 18/16 A3016 RMK A01 T01800157  RH  086%=      5-min Rain = 0
KHA2 111014Z 19007KT 18/16 A3016 RMK A01 T01810157  RH  086%=      5-min Rain = 0
KHA2 111015Z 19007KT 18/16 A3015 RMK A01 T01810157  RH  086%=      5-min Rain = 0
KHA2 111016Z 19007KT 18/16 A3015 RMK A01 T01820157  RH  086%=      5-min Rain = 0
KHA2 111017Z 19007KT 18/16 A3015 RMK A01 T01820158  RH  086%=      5-min Rain = 0
KHA2 111018Z 19007KT 18/16 A3015 RMK A01 T01830158  RH  085%=      5-min Rain = 0
KHA2 111019Z 19007KT 18/16 A3015 RMK A01 T01830158  RH  085%=      5-min Rain = 0
KHA2 111020Z 19007KT 18/16 A3015 RMK A01 T01830158  RH  085%=      5-min Rain = 0
KHA2 111021Z 19007KT 18/16 A3015 RMK A01 T01830158  RH  085%=      5-min Rain = 0
KHA2 111022Z 19007KT 18/16 A3015 RMK A01 T01830158  RH  085%=      5-min Rain = 0
KHA2 111023Z 19007KT 18/16 A3015 RMK A01 T01830158  RH  085%=      5-min Rain = 0
KHA2 111024Z 19007KT 18/16 A3015 RMK A01 T01830157  RH  085%=      5-min Rain = 0
KHA2 111025Z 19007KT 18/16 A3015 RMK A01 T01820158  RH  085%=      5-min Rain = 0
KHA2 111026Z 19007KT 18/16 A3015 RMK A01 T01820157  RH  085%=      5-min Rain = 0
KHA2 111027Z 20006KT 18/16 A3015 RMK A01 T01820158  RH  086%=      5-min Rain = 0
KHA2 111028Z 20007KT 18/16 A3015 RMK A01 T01820157  RH  086%=      5-min Rain = 0
KHA2 111029Z 20007KT 18/16 A3015 RMK A01 T01810157  RH  086%=      5-min Rain = 0
KHA2 111030Z 20007KT 18/16 A3015 RMK A01 T01810157  RH  086%=      5-min Rain = 0
KHA2 111031Z 20006KT 18/16 A3015 RMK A01 T01810157  RH  086%=      5-min Rain = 0
KHA2 111032Z 20006KT 18/16 A3015 RMK A01 T01810157  RH  086%=      5-min Rain = 0
KHA2 111033Z 20006KT 18/16 A3015 RMK A01 T01810157  RH  086%=      5-min Rain = 0
KHA2 111034Z 20007KT 18/16 A3015 RMK A01 T01810157  RH  086%=      5-min Rain = 0
KHA2 111035Z 20007KT 18/16 A3015 RMK A01 T01810156  RH  085%=      5-min Rain = 0
KHA2 111036Z 19007KT 18/16 A3015 RMK A01 T01820157  RH  085%=      5-min Rain = 0
KHA2 111037Z 19007KT 18/16 A3015 RMK A01 T01820157  RH  085%=      5-min Rain = 0
KHA2 111038Z 19007KT 18/16 A3015 RMK A01 T01820157  RH  085%=      5-min Rain = 0
KHA2 111039Z 19007KT 18/16 A3015 RMK A01 T01810157  RH  086%=      5-min Rain = 0
KHA2 111040Z 20007KT 18/16 A3015 RMK A01 T01810156  RH  086%=      5-min Rain = 0
KHA2 111041Z 20007KT 18/16 A3015 RMK A01 T01800157  RH  086%=      5-min Rain = 0
KHA2 111042Z 20007KT 18/16 A3015 RMK A01 T01800157  RH  086%=      5-min Rain = 0
KHA2 111043Z 20007KT 18/16 A3015 RMK A01 T01800157  RH  086%=      5-min Rain = 0
KHA2 111044Z 20007KT 18/16 A3015 RMK A01 T01800157  RH  086%=      5-min Rain = 0
KHA2 111045Z 20007KT 18/16 A3015 RMK A01 T01800157  RH  086%=      5-min Rain = 0
KHA2 111046Z 20008KT 18/16 A3015 RMK A01 T01800157  RH  086%=      5-min Rain = 0
KHA2 111047Z 20007KT 18/16 A3015 RMK A01 T01800157  RH  086%=      5-min Rain = 0
KHA2 111048Z 21007KT 18/16 A3015 RMK A01 T01810157  RH  086%=      5-min Rain = 0
KHA2 111049Z 21007KT 18/16 A3015 RMK A01 T01810157  RH  086%=      5-min Rain = 0
KHA2 111050Z 21006KT 18/16 A3015 RMK A01 T01820157  RH  085%=      5-min Rain = 0
KHA2 111051Z 21007KT 18/16 A3015 RMK A01 T01820157  RH  085%=      5-min Rain = 0
KHA2 111052Z 21007KT 18/16 A3015 RMK A01 T01820157  RH  085%=      5-min Rain = 0
KHA2 111053Z 21007KT 18/16 A3015 RMK A01 T01830157  RH  085%=      5-min Rain = 0
KHA2 111054Z 21007KT 18/16 A3015 RMK A01 T01830157  RH  085%=      5-min Rain = 0
KHA2 111055Z 21007KT 18/16 A3015 RMK A01 T01830157  RH  085%=      5-min Rain = 0
KHA2 111056Z 21007KT 18/16 A3015 RMK A01 T01820157  RH  085%=      5-min Rain = 0
KHA2 111057Z 21007KT 18/16 A3015 RMK A01 T01820156  RH  085%=      5-min Rain = 0
KHA2 111058Z 21007KT 18/16 A3015 RMK A01 T01820156  RH  085%=      5-min Rain = 0
KHA2 111059Z 21007KT 18/16 A3015 RMK A01 T01820156  RH  085%=      5-min Rain = 0
KHA2 111100Z 21007KT 18/16 A3015 RMK A01 T01820156  RH  085%=      5-min Rain = 0
KHA2 111101Z 21007KT 18/16 A3016 RMK A01 T01810156  RH  085%=      5-min Rain = 0
KHA2 111102Z 20006KT 18/16 A3016 RMK A01 T01810156  RH  085%=      5-min Rain = 0
KHA2 111103Z 20006KT 18/16 A3016 RMK A01 T01810156  RH  086%=      5-min Rain = 0
KHA2 111104Z 20007KT 18/16 A3016 RMK A01 T01810156  RH  086%=      5-min Rain = 0
KHA2 111105Z 20007KT 18/16 A3016 RMK A01 T01810156  RH  086%=      5-min Rain = 0
KHA2 111106Z 20006KT 18/16 A3016 RMK A01 T01810156  RH  085%=      5-min Rain = 0
KHA2 111107Z 20007KT 18/16 A3016 RMK A01 T01820157  RH  085%=      5-min Rain = 0
KHA2 111108Z 20006KT 18/16 A3016 RMK A01 T01820157  RH  085%=      5-min Rain = 0
KHA2 111109Z 20007KT 18/16 A3016 RMK A01 T01830157  RH  085%=      5-min Rain = 0
KHA2 111110Z 20007KT 18/16 A3016 RMK A01 T01830157  RH  085%=      5-min Rain = 0
KHA2 111111Z 20007KT 18/16 A3016 RMK A01 T01840158  RH  085%=      5-min Rain = 0
KHA2 111112Z 20007KT 18/16 A3016 RMK A01 T01840158  RH  084%=      5-min Rain = 0
KHA2 111113Z 21007KT 19/16 A3016 RMK A01 T01850158  RH  084%=      5-min Rain = 0
KHA2 111114Z 21007KT 19/16 A3016 RMK A01 T01850158  RH  084%=      5-min Rain = 0
KHA2 111115Z 21007KT 19/16 A3016 RMK A01 T01860158  RH  084%=      5-min Rain = 0
KHA2 111116Z 20008KT 19/16 A3016 RMK A01 T01870158  RH  084%=      5-min Rain = 0
KHA2 111117Z 20008KT 19/16 A3016 RMK A01 T01870158  RH  083%=      5-min Rain = 0
KHA2 111118Z 21008KT 19/16 A3016 RMK A01 T01880159  RH  083%=      5-min Rain = 0
KHA2 111119Z 21008KT 19/16 A3016 RMK A01 T01870158  RH  083%=      5-min Rain = 0
KHA2 111120Z 21008KT 19/16 A3016 RMK A01 T01880158  RH  083%=      5-min Rain = 0
KHA2 111121Z 21008KT 19/16 A3016 RMK A01 T01880159  RH  083%=      5-min Rain = 0
KHA2 111122Z 21008KT 19/16 A3016 RMK A01 T01890159  RH  083%=      5-min Rain = 0
KHA2 111123Z 21008KT 19/16 A3016 RMK A01 T01890159  RH  083%=      5-min Rain = 0
KHA2 111124Z 21008KT 19/16 A3016 RMK A01 T01890158  RH  082%=      5-min Rain = 0
KHA2 111125Z 21008KT 19/16 A3016 RMK A01 T01890158  RH  082%=      5-min Rain = 0
KHA2 111126Z 21008KT 19/16 A3016 RMK A01 T01890158  RH  082%=      5-min Rain = 0
KHA2 111127Z 21008KT 19/16 A3016 RMK A01 T01890158  RH  082%=      5-min Rain = 0
KHA2 111128Z 21008KT 19/16 A3016 RMK A01 T01890158  RH  082%=      5-min Rain = 0
KHA2 111129Z 21008KT 19/16 A3016 RMK A01 T01890158  RH  082%=      5-min Rain = 0
KHA2 111130Z 21007KT 19/16 A3016 RMK A01 T01890158  RH  082%=      5-min Rain = 0
KHA2 111131Z 21008KT 19/16 A3016 RMK A01 T01890158  RH  082%=      5-min Rain = 0
KHA2 111132Z 21007KT 19/16 A3016 RMK A01 T01890159  RH  083%=      5-min Rain = 0
KHA2 111133Z 21008KT 19/16 A3016 RMK A01 T01890158  RH  082%=      5-min Rain = 0
KHA2 111134Z 21008KT 19/16 A3016 RMK A01 T01890159  RH  082%=      5-min Rain = 0
KHA2 111135Z 22008KT 19/16 A3016 RMK A01 T01890158  RH  082%=      5-min Rain = 0
KHA2 111136Z 22007KT 19/16 A3016 RMK A01 T01900159  RH  082%=      5-min Rain = 0
KHA2 111137Z 22007KT 19/16 A3016 RMK A01 T01900159  RH  082%=      5-min Rain = 0
KHA2 111138Z 22007KT 19/16 A3016 RMK A01 T01900159  RH  082%=      5-min Rain = 0
KHA2 111139Z 22006KT 19/16 A3016 RMK A01 T01900159  RH  082%=      5-min Rain = 0
KHA2 111140Z 22007KT 19/16 A3016 RMK A01 T01900159  RH  082%=      5-min Rain = 0
KHA2 111141Z 21007KT 19/16 A3016 RMK A01 T01900159  RH  082%=      5-min Rain = 0
KHA2 111142Z 22006KT 19/16 A3016 RMK A01 T01900159  RH  082%=      5-min Rain = 0
KHA2 111143Z 22007KT 19/16 A3016 RMK A01 T01910159  RH  082%=      5-min Rain = 0
KHA2 111144Z 22006KT 19/16 A3016 RMK A01 T01910159  RH  082%=      5-min Rain = 0
KHA2 111145Z 22006KT 19/16 A3016 RMK A01 T01910159  RH  082%=      5-min Rain = 0
KHA2 111146Z 22006KT 19/16 A3016 RMK A01 T01900159  RH  082%=      5-min Rain = 0
KHA2 111147Z 22006KT 19/16 A3016 RMK A01 T01900159  RH  082%=      5-min Rain = 0
KHA2 111148Z 22006KT 19/16 A3016 RMK A01 T01900159  RH  082%=      5-min Rain = 0
KHA2 111149Z 22006KT 19/16 A3016 RMK A01 T01890159  RH  082%=      5-min Rain = 0
KHA2 111150Z 22006KT 19/16 A3017 RMK A01 T01890158  RH  082%=      5-min Rain = 0
KHA2 111151Z 22006KT 19/16 A3017 RMK A01 T01890158  RH  082%=      5-min Rain = 0
KHA2 111152Z 22006KT 19/16 A3017 RMK A01 T01890158  RH  082%=      5-min Rain = 0
KHA2 111153Z 21006KT 19/16 A3017 RMK A01 T01890158  RH  082%=      5-min Rain = 0
KHA2 111154Z 21006KT 19/16 A3017 RMK A01 T01890158  RH  082%=      5-min Rain = 0
KHA2 111155Z 21006KT 19/16 A3017 RMK A01 T01880158  RH  082%=      5-min Rain = 0
KHA2 111156Z 21007KT 19/16 A3017 RMK A01 T01880158  RH  083%=      5-min Rain = 0
KHA2 111157Z 21007KT 19/16 A3017 RMK A01 T01880158  RH  083%=      5-min Rain = 0
KHA2 111158Z 21007KT 19/16 A3017 RMK A01 T01880158  RH  083%=      5-min Rain = 0
KHA2 111159Z 21007KT 19/16 A3017 RMK A01 T01880158  RH  083%=      5-min Rain = 0
KHA2 111200Z 21007KT 19/16 A3017 RMK A01 T01880158  RH  083%=      5-min Rain = 0
KHA2 111201Z 21007KT 19/16 A3017 RMK A01 T01880158  RH  083%=      5-min Rain = 0
KHA2 111202Z 21007KT 19/16 A3017 RMK A01 T01880158  RH  083%=      5-min Rain = 0
KHA2 111203Z 21007KT 19/16 A3017 RMK A01 T01880158  RH  083%=      5-min Rain = 0
KHA2 111204Z 22007KT 19/16 A3017 RMK A01 T01880159  RH  083%=      5-min Rain = 0
KHA2 111205Z 22007KT 19/16 A3017 RMK A01 T01880159  RH  083%=      5-min Rain = 0
KHA2 111206Z 22007KT 19/16 A3017 RMK A01 T01880159  RH  083%=      5-min Rain = 0
KHA2 111207Z 22007KT 19/16 A3017 RMK A01 T01880159  RH  083%=      5-min Rain = 0
KHA2 111208Z 22007KT 19/16 A3017 RMK A01 T01890159  RH  083%=      5-min Rain = 0
KHA2 111209Z 22006KT 19/16 A3017 RMK A01 T01880158  RH  083%=      5-min Rain = 0
KHA2 111210Z 22007KT 19/16 A3017 RMK A01 T01880159  RH  083%=      5-min Rain = 0
KHA2 111211Z 21007KT 19/16 A3017 RMK A01 T01890159  RH  083%=      5-min Rain = 0
KHA2 111212Z 21007KT 19/16 A3017 RMK A01 T01890159  RH  083%=      5-min Rain = 0
KHA2 111213Z 21007KT 19/16 A3017 RMK A01 T01890159  RH  083%=      5-min Rain = 0
KHA2 111214Z 21008KT 19/16 A3017 RMK A01 T01890160  RH  083%=      5-min Rain = 0
KHA2 111215Z 21007KT 19/16 A3017 RMK A01 T01890159  RH  083%=      5-min Rain = 0
KHA2 111216Z 21007KT 19/16 A3017 RMK A01 T01890159  RH  083%=      5-min Rain = 0
KHA2 111217Z 22007KT 19/16 A3017 RMK A01 T01890159  RH  083%=      5-min Rain = 0
KHA2 111218Z 22007KT 19/16 A3017 RMK A01 T01900160  RH  082%=      5-min Rain = 0
KHA2 111219Z 22007KT 19/16 A3017 RMK A01 T01900160  RH  082%=      5-min Rain = 0
KHA2 111220Z 22007KT 19/16 A3017 RMK A01 T01910160  RH  082%=      5-min Rain = 0
KHA2 111221Z 21007KT 19/16 A3017 RMK A01 T01910160  RH  082%=      5-min Rain = 0
KHA2 111222Z 22007KT 19/16 A3017 RMK A01 T01920160  RH  082%=      5-min Rain = 0
KHA2 111223Z 21007KT 19/16 A3017 RMK A01 T01920160  RH  081%=      5-min Rain = 0
KHA2 111224Z 21007KT 19/16 A3017 RMK A01 T01930160  RH  081%=      5-min Rain = 0
KHA2 111225Z 22007KT 19/16 A3017 RMK A01 T01930160  RH  081%=      5-min Rain = 0
KHA2 111226Z 21007KT 19/16 A3017 RMK A01 T01940160  RH  081%=      5-min Rain = 0
KHA2 111227Z 21007KT 19/16 A3017 RMK A01 T01940160  RH  081%=      5-min Rain = 0
KHA2 111228Z 21007KT 20/16 A3017 RMK A01 T01950161  RH  081%=      5-min Rain = 0
KHA2 111229Z 21007KT 20/16 A3017 RMK A01 T01950161  RH  080%=      5-min Rain = 0
KHA2 111230Z 21007KT 20/16 A3017 RMK A01 T01960161  RH  080%=      5-min Rain = 0
KHA2 111231Z 21008KT 20/16 A3017 RMK A01 T01960161  RH  080%=      5-min Rain = 0
KHA2 111232Z 21007KT 20/16 A3017 RMK A01 T01970161  RH  080%=      5-min Rain = 0
KHA2 111233Z 21007KT 20/16 A3017 RMK A01 T01970162  RH  080%=      5-min Rain = 0
KHA2 111234Z 21008KT 20/16 A3017 RMK A01 T01980162  RH  080%=      5-min Rain = 0
KHA2 111235Z 21007KT 20/16 A3017 RMK A01 T01980162  RH  080%=      5-min Rain = 0
KHA2 111236Z 21007KT 20/16 A3017 RMK A01 T01990162  RH  079%=      5-min Rain = 0
KHA2 111237Z 21007KT 20/16 A3017 RMK A01 T01990163  RH  079%=      5-min Rain = 0
KHA2 111238Z 21007KT 20/16 A3017 RMK A01 T02000162  RH  079%=      5-min Rain = 0
KHA2 111239Z 21007KT 20/16 A3017 RMK A01 T02000163  RH  079%=      5-min Rain = 0
KHA2 111240Z 22006KT 20/16 A3017 RMK A01 T02010163  RH  079%=      5-min Rain = 0
KHA2 111241Z 21007KT 20/16 A3017 RMK A01 T02010163  RH  078%=      5-min Rain = 0
KHA2 111242Z 22006KT 20/16 A3017 RMK A01 T02020163  RH  078%=      5-min Rain = 0
KHA2 111243Z 21007KT 20/16 A3017 RMK A01 T02030164  RH  078%=      5-min Rain = 0
KHA2 111244Z 21006KT 20/16 A3017 RMK A01 T02040164  RH  078%=      5-min Rain = 0
KHA2 111245Z 22007KT 20/16 A3017 RMK A01 T02040164  RH  078%=      5-min Rain = 0
KHA2 111246Z 22006KT 21/17 A3017 RMK A01 T02050165  RH  077%=      5-min Rain = 0
KHA2 111247Z 21007KT 21/17 A3017 RMK A01 T02060165  RH  077%=      5-min Rain = 0
KHA2 111248Z 21008KT 21/17 A3017 RMK A01 T02070165  RH  077%=      5-min Rain = 0
KHA2 111249Z 21007KT 21/17 A3017 RMK A01 T02080166  RH  077%=      5-min Rain = 0
KHA2 111250Z 21006KT 21/17 A3017 RMK A01 T02090166  RH  076%=      5-min Rain = 0
KHA2 111251Z 21007KT 21/17 A3017 RMK A01 T02090166  RH  076%=      5-min Rain = 0
KHA2 111252Z 21006KT 21/17 A3017 RMK A01 T02100167  RH  076%=      5-min Rain = 0
KHA2 111253Z 21007KT 21/17 A3017 RMK A01 T02110168  RH  076%=      5-min Rain = 0
KHA2 111254Z 21007KT 21/17 A3017 RMK A01 T02120168  RH  076%=      5-min Rain = 0
KHA2 111255Z 21008KT 21/17 A3017 RMK A01 T02130168  RH  075%=      5-min Rain = 0
KHA2 111256Z 21007KT 21/17 A3017 RMK A01 T02140168  RH  075%=      5-min Rain = 0
KHA2 111257Z 21008KT 21/17 A3017 RMK A01 T02140168  RH  075%=      5-min Rain = 0
KHA2 111258Z 21006KT 22/17 A3017 RMK A01 T02150168  RH  075%=      5-min Rain = 0
KHA2 111259Z 21007KT 22/17 A3017 RMK A01 T02160169  RH  075%=      5-min Rain = 0
KHA2 111300Z 21007KT 22/17 A3017 RMK A01 T02170169  RH  074%=      5-min Rain = 0
KHA2 111301Z 21007KT 22/17 A3017 RMK A01 T02180170  RH  074%=      5-min Rain = 0
KHA2 111302Z 22007KT 22/17 A3017 RMK A01 T02190169  RH  073%=      5-min Rain = 0
KHA2 111303Z 21008KT 22/17 A3017 RMK A01 T02200171  RH  074%=      5-min Rain = 0
KHA2 111304Z 21008KT 22/17 A3017 RMK A01 T02210170  RH  073%=      5-min Rain = 0
KHA2 111305Z 21008KT 22/17 A3017 RMK A01 T02210171  RH  073%=      5-min Rain = 0
KHA2 111306Z 21008KT 22/17 A3017 RMK A01 T02220171  RH  073%=      5-min Rain = 0
KHA2 111307Z 21009KT 22/17 A3017 RMK A01 T02230171  RH  073%=      5-min Rain = 0
KHA2 111308Z 21008KT 22/17 A3017 RMK A01 T02230171  RH  072%=      5-min Rain = 0
KHA2 111309Z 21009KT 22/17 A3017 RMK A01 T02240171  RH  072%=      5-min Rain = 0
KHA2 111310Z 21009KT 22/17 A3017 RMK A01 T02240172  RH  072%=      5-min Rain = 0
KHA2 111311Z 20007KT 23/17 A3017 RMK A01 T02250171  RH  072%=      5-min Rain = 0
KHA2 111312Z 20008KT 23/17 A3017 RMK A01 T02250173  RH  072%=      5-min Rain = 0
KHA2 111313Z 21009KT 23/17 A3017 RMK A01 T02260172  RH  072%=      5-min Rain = 0
KHA2 111314Z 21009KT 23/17 A3017 RMK A01 T02260172  RH  072%=      5-min Rain = 0
KHA2 111315Z 21007KT 23/17 A3017 RMK A01 T02260173  RH  072%=      5-min Rain = 0
KHA2 111316Z 20007KT 23/18 A3017 RMK A01 T02270175  RH  072%=      5-min Rain = 0
KHA2 111317Z 20008KT 23/17 A3017 RMK A01 T02280174  RH  072%=      5-min Rain = 0
KHA2 111318Z 20008KT 23/17 A3017 RMK A01 T02280174  RH  072%=      5-min Rain = 0
KHA2 111319Z 20009KT 23/17 A3017 RMK A01 T02270173  RH  071%=      5-min Rain = 0
KHA2 111320Z 21008KT 23/17 A3017 RMK A01 T02270173  RH  072%=      5-min Rain = 0
KHA2 111321Z 20009KT 23/17 A3017 RMK A01 T02280174  RH  072%=      5-min Rain = 0
KHA2 111322Z 20009KT 23/17 A3017 RMK A01 T02290173  RH  071%=      5-min Rain = 0
KHA2 111323Z 20009KT 23/17 A3017 RMK A01 T02290173  RH  071%=      5-min Rain = 0
KHA2 111324Z 20007KT 23/17 A3017 RMK A01 T02290174  RH  071%=      5-min Rain = 0
KHA2 111325Z 20008KT 23/18 A3017 RMK A01 T02290175  RH  071%=      5-min Rain = 0
KHA2 111326Z 21009KT 23/18 A3017 RMK A01 T02310175  RH  071%=      5-min Rain = 0
KHA2 111327Z 20007KT 23/17 A3017 RMK A01 T02300174  RH  071%=      5-min Rain = 0
KHA2 111328Z 20009KT 23/18 A3017 RMK A01 T02310175  RH  071%=      5-min Rain = 0
KHA2 111329Z 20007KT 23/18 A3017 RMK A01 T02320175  RH  070%=      5-min Rain = 0
KHA2 111330Z 20007KT 23/18 A3017 RMK A01 T02330177  RH  071%=      5-min Rain = 0
KHA2 111331Z 20009KT 23/18 A3017 RMK A01 T02340177  RH  070%=      5-min Rain = 0
KHA2 111332Z 19008KT 23/18 A3017 RMK A01 T02340175  RH  069%=      5-min Rain = 0
KHA2 111333Z 19008KT 23/18 A3017 RMK A01 T02340176  RH  070%=      5-min Rain = 0
KHA2 111334Z 20008KT 24/18 A3017 RMK A01 T02360177  RH  069%=      5-min Rain = 0
KHA2 111335Z 20008KT 24/18 A3017 RMK A01 T02370177  RH  069%=      5-min Rain = 0
KHA2 111336Z 20009KT 24/18 A3017 RMK A01 T02380175  RH  068%=      5-min Rain = 0
KHA2 111337Z 20011KT 24/18 A3017 RMK A01 T02390175  RH  067%=      5-min Rain = 0
KHA2 111338Z 20010KT 24/18 A3017 RMK A01 T02400176  RH  067%=      5-min Rain = 0
KHA2 111339Z 20011KT 24/17 A3017 RMK A01 T02420174  RH  066%=      5-min Rain = 0
KHA2 111340Z 20008KT 24/17 A3017 RMK A01 T02430173  RH  065%=      5-min Rain = 0
KHA2 111341Z 20011KT 25/18 A3017 RMK A01 T02450177  RH  066%=      5-min Rain = 0
KHA2 111342Z 20011KT 25/17 A3017 RMK A01 T02470172  RH  063%=      5-min Rain = 0
KHA2 111343Z 20009KT 25/17 A3017 RMK A01 T02470171  RH  063%=      5-min Rain = 0
KHA2 111344Z 21013KT 25/17 A3017 RMK A01 T02470171  RH  063%=      5-min Rain = 0
KHA2 111345Z 21012KT 25/17 A3017 RMK A01 T02470169  RH  062%=      5-min Rain = 0
KHA2 111346Z 21012KT 25/17 A3017 RMK A01 T02480169  RH  061%=      5-min Rain = 0
KHA2 111347Z 20011KT 25/17 A3017 RMK A01 T02490169  RH  061%=      5-min Rain = 0
KHA2 111348Z 20012KT 25/17 A3017 RMK A01 T02520169  RH  060%=      5-min Rain = 0
KHA2 111349Z 20012KT 25/17 A3017 RMK A01 T02530166  RH  059%=      5-min Rain = 0
KHA2 111350Z 20010KT 25/17 A3017 RMK A01 T02530168  RH  059%=      5-min Rain = 0
KHA2 111351Z 21011KT 25/17 A3017 RMK A01 T02540169  RH  059%=      5-min Rain = 0
KHA2 111352Z 20013KT 26/17 A3017 RMK A01 T02550166  RH  058%=      5-min Rain = 0
KHA2 111353Z 21015KT 26/16 A3017 RMK A01 T02560158  RH  055%=      5-min Rain = 0
KHA2 111354Z 20012KT 25/16 A3017 RMK A01 T02530160  RH  056%=      5-min Rain = 0
KHA2 111355Z 21011KT 25/16 A3017 RMK A01 T02520162  RH  057%=      5-min Rain = 0
KHA2 111356Z 21010KT 25/16 A3018 RMK A01 T02520161  RH  057%=      5-min Rain = 0
KHA2 111357Z 20012KT 25/16 A3017 RMK A01 T02520155  RH  055%=      5-min Rain = 0
KHA2 111358Z 20012KT 25/16 A3017 RMK A01 T02520156  RH  055%=      5-min Rain = 0
KHA2 111359Z 20011KT 25/16 A3018 RMK A01 T02520158  RH  056%=      5-min Rain = 0
KHA2 111400Z 20011KT 25/16 A3018 RMK A01 T02530157  RH  055%=      5-min Rain = 0
KHA2 111401Z 20011KT 25/16 A3018 RMK A01 T02530156  RH  055%=      5-min Rain = 0
KHA2 111402Z 21010KT 25/16 A3018 RMK A01 T02540157  RH  055%=      5-min Rain = 0
KHA2 111403Z 20013KT 26/16 A3018 RMK A01 T02560157  RH  054%=      5-min Rain = 0
KHA2 111404Z 20014KT 26/16 A3018 RMK A01 T02560155  RH  053%=      5-min Rain = 0
KHA2 111405Z 20014KT 26/15 A3017 RMK A01 T02560153  RH  053%=      5-min Rain = 0
KHA2 111406Z 20015KT 26/15 A3018 RMK A01 T02550152  RH  053%=      5-min Rain = 0
KHA2 111407Z 20012KT 26/15 A3018 RMK A01 T02550151  RH  052%=      5-min Rain = 0
KHA2 111408Z 20013KT 26/15 A3018 RMK A01 T02550149  RH  052%=      5-min Rain = 0
KHA2 111409Z 20014KT 26/15 A3018 RMK A01 T02550149  RH  052%=      5-min Rain = 0
KHA2 111410Z 20014KT 26/15 A3018 RMK A01 T02550148  RH  051%=      5-min Rain = 0
KHA2 111411Z 19014KT 26/15 A3018 RMK A01 T02560148  RH  051%=      5-min Rain = 0
KHA2 111412Z 20013KT 26/15 A3018 RMK A01 T02550148  RH  051%=      5-min Rain = 0
KHA2 111413Z 20014KT 26/15 A3018 RMK A01 T02560148  RH  051%=      5-min Rain = 0
KHA2 111414Z 20014KT 26/15 A3018 RMK A01 T02550148  RH  051%=      5-min Rain = 0
KHA2 111415Z 19013KT 26/15 A3018 RMK A01 T02550149  RH  052%=      5-min Rain = 0
KHA2 111416Z 19012KT 26/15 A3018 RMK A01 T02550149  RH  052%=      5-min Rain = 0
KHA2 111417Z 20013KT 26/15 A3018 RMK A01 T02550147  RH  051%=      5-min Rain = 0
KHA2 111418Z 20012KT 26/15 A3018 RMK A01 T02550148  RH  051%=      5-min Rain = 0
KHA2 111419Z 20016KT 26/15 A3018 RMK A01 T02560148  RH  051%=      5-min Rain = 0
KHA2 111420Z 20014KT 26/15 A3018 RMK A01 T02560146  RH  050%=      5-min Rain = 0
KHA2 111421Z 20013KT 26/15 A3018 RMK A01 T02560147  RH  051%=      5-min Rain = 0
KHA2 111422Z 20013KT 26/15 A3018 RMK A01 T02560148  RH  051%=      5-min Rain = 0
KHA2 111423Z 20016KT 26/15 A3018 RMK A01 T02560147  RH  051%=      5-min Rain = 0
KHA2 111424Z 20017KT 26/14 A3018 RMK A01 T02550144  RH  050%=      5-min Rain = 0
KHA2 111425Z 20015KT 26/15 A3018 RMK A01 T02550145  RH  051%=      5-min Rain = 0
KHA2 111426Z 20012KT 25/15 A3018 RMK A01 T02540146  RH  051%=      5-min Rain = 0
KHA2 111427Z 21015KT 26/15 A3018 RMK A01 T02560146  RH  051%=      5-min Rain = 0
KHA2 111428Z 21015KT 26/14 A3018 RMK A01 T02560144  RH  050%=      5-min Rain = 0
KHA2 111429Z 21012KT 26/15 A3018 RMK A01 T02560146  RH  051%=      5-min Rain = 0
KHA2 111430Z 21014KT 26/15 A3018 RMK A01 T02560147  RH  051%=      5-min Rain = 0
KHA2 111431Z 21015KT 26/15 A3018 RMK A01 T02560145  RH  050%=      5-min Rain = 0
KHA2 111432Z 21015KT 26/15 A3018 RMK A01 T02560146  RH  050%=      5-min Rain = 0
KHA2 111433Z 20016KT 26/15 A3018 RMK A01 T02570146  RH  050%=      5-min Rain = 0
KHA2 111434Z 20015KT 26/15 A3018 RMK A01 T02570147  RH  051%=      5-min Rain = 0
KHA2 111435Z 21013KT 26/15 A3018 RMK A01 T02570147  RH  051%=      5-min Rain = 0
KHA2 111436Z 21013KT 26/15 A3018 RMK A01 T02580148  RH  051%=      5-min Rain = 0
KHA2 111437Z 21013KT 26/15 A3018 RMK A01 T02600149  RH  051%=      5-min Rain = 0
KHA2 111438Z 21015KT 26/15 A3018 RMK A01 T02600147  RH  050%=      5-min Rain = 0
KHA2 111439Z 21016KT 26/15 A3018 RMK A01 T02580146  RH  050%=      5-min Rain = 0
KHA2 111440Z 21015KT 26/15 A3018 RMK A01 T02580146  RH  050%=      5-min Rain = 0
KHA2 111441Z 21014KT 26/15 A3018 RMK A01 T02580147  RH  050%=      5-min Rain = 0
KHA2 111442Z 20013KT 26/15 A3018 RMK A01 T02590149  RH  050%=      5-min Rain = 0
KHA2 111443Z 21015KT 26/15 A3018 RMK A01 T02610150  RH  050%=      5-min Rain = 0
KHA2 111444Z 20016KT 26/15 A3018 RMK A01 T02610147  RH  049%=      5-min Rain = 0
KHA2 111445Z 21017KT 26/15 A3018 RMK A01 T02600146  RH  049%=      5-min Rain = 0
KHA2 111446Z 21018KT 26/15 A3018 RMK A01 T02600146  RH  049%=      5-min Rain = 0
KHA2 111447Z 21014KT 26/15 A3018 RMK A01 T02590145  RH  049%=      5-min Rain = 0
KHA2 111448Z 22014KT 26/15 A3018 RMK A01 T02590146  RH  050%=      5-min Rain = 0
KHA2 111449Z 21017KT 26/15 A3018 RMK A01 T02600146  RH  049%=      5-min Rain = 0
KHA2 111450Z 21015KT 26/15 A3018 RMK A01 T02600145  RH  049%=      5-min Rain = 0
KHA2 111451Z 22015KT 26/15 A3018 RMK A01 T02600146  RH  049%=      5-min Rain = 0
KHA2 111452Z 22013KT 26/15 A3018 RMK A01 T02610147  RH  049%=      5-min Rain = 0
KHA2 111453Z 21014KT 26/15 A3018 RMK A01 T02630147  RH  049%=      5-min Rain = 0
KHA2 111454Z 20014KT 26/15 A3018 RMK A01 T02630147  RH  049%=      5-min Rain = 0
KHA2 111455Z 20014KT 26/15 A3018 RMK A01 T02640148  RH  049%=      5-min Rain = 0
KHA2 111456Z 20017KT 27/15 A3018 RMK A01 T02650146  RH  048%=      5-min Rain = 0
KHA2 111457Z 19015KT 27/15 A3018 RMK A01 T02650146  RH  048%=      5-min Rain = 0
KHA2 111458Z 20015KT 26/15 A3018 RMK A01 T02640146  RH  048%=      5-min Rain = 0
KHA2 111459Z 20014KT 26/15 A3018 RMK A01 T02640145  RH  048%=      5-min Rain = 0
KHA2 111500Z 20014KT 26/15 A3018 RMK A01 T02640145  RH  048%=      5-min Rain = 0
KHA2 111501Z 20016KT 26/14 A3018 RMK A01 T02640144  RH  048%=      5-min Rain = 0
KHA2 111502Z 21015KT 26/15 A3018 RMK A01 T02630146  RH  048%=      5-min Rain = 0
KHA2 111503Z 21016KT 26/14 A3018 RMK A01 T02640144  RH  048%=      5-min Rain = 0
KHA2 111504Z 21013KT 26/14 A3018 RMK A01 T02640144  RH  048%=      5-min Rain = 0
KHA2 111505Z 21013KT 26/15 A3018 RMK A01 T02640145  RH  048%=      5-min Rain = 0
KHA2 111506Z 20011KT 26/15 A3018 RMK A01 T02640146  RH  048%=      5-min Rain = 0
KHA2 111507Z 21013KT 27/15 A3018 RMK A01 T02660148  RH  048%=      5-min Rain = 0
KHA2 111508Z 21012KT 27/15 A3018 RMK A01 T02680146  RH  047%=      5-min Rain = 0
KHA2 111509Z 20014KT 27/15 A3018 RMK A01 T02670146  RH  047%=      5-min Rain = 0
KHA2 111510Z 20012KT 27/15 A3018 RMK A01 T02660146  RH  048%=      5-min Rain = 0
KHA2 111511Z 20014KT 27/15 A3018 RMK A01 T02660145  RH  047%=      5-min Rain = 0
KHA2 111512Z 20013KT 27/15 A3018 RMK A01 T02660145  RH  047%=      5-min Rain = 0
KHA2 111513Z 21011KT 27/15 A3018 RMK A01 T02670145  RH  047%=      5-min Rain = 0
KHA2 111514Z 21012KT 27/15 A3018 RMK A01 T02690148  RH  047%=      5-min Rain = 0
KHA2 111515Z 20012KT 27/15 A3018 RMK A01 T02700147  RH  047%=      5-min Rain = 0
KHA2 111516Z 22012KT 27/15 A3018 RMK A01 T02700147  RH  047%=      5-min Rain = 0
KHA2 111517Z 21014KT 27/15 A3018 RMK A01 T02730149  RH  047%=      5-min Rain = 0
KHA2 111518Z 21015KT 28/15 A3018 RMK A01 T02770146  RH  045%=      5-min Rain = 0
KHA2 111519Z 22014KT 28/15 A3018 RMK A01 T02760147  RH  045%=      5-min Rain = 0
KHA2 111520Z 22013KT 27/14 A3018 RMK A01 T02740144  RH  045%=      5-min Rain = 0
KHA2 111521Z 21012KT 27/15 A3018 RMK A01 T02710146  RH  046%=      5-min Rain = 0
KHA2 111522Z 20014KT 27/15 A3018 RMK A01 T02740146  RH  046%=      5-min Rain = 0
KHA2 111523Z 20014KT 28/15 A3018 RMK A01 T02750147  RH  045%=      5-min Rain = 0
KHA2 111524Z 20015KT 28/15 A3018 RMK A01 T02790150  RH  045%=      5-min Rain = 0
KHA2 111525Z 20014KT 28/15 A3018 RMK A01 T02810147  RH  044%=      5-min Rain = 0
KHA2 111526Z 20013KT 28/15 A3018 RMK A01 T02780147  RH  045%=      5-min Rain = 0
KHA2 111527Z 20014KT 28/15 A3018 RMK A01 T02770148  RH  045%=      5-min Rain = 0
KHA2 111528Z 21014KT 28/15 A3018 RMK A01 T02790146  RH  044%=      5-min Rain = 0
KHA2 111529Z 21014KT 28/15 A3018 RMK A01 T02760146  RH  045%=      5-min Rain = 0
KHA2 111530Z 20015KT 28/15 A3018 RMK A01 T02760147  RH  045%=      5-min Rain = 0
KHA2 111531Z 19014KT 28/15 A3018 RMK A01 T02770146  RH  045%=      5-min Rain = 0
KHA2 111532Z 20013KT 28/14 A3018 RMK A01 T02760144  RH  044%=      5-min Rain = 0
KHA2 111533Z 21016KT 28/14 A3018 RMK A01 T02750143  RH  044%=      5-min Rain = 0
KHA2 111534Z 21013KT 28/14 A3018 RMK A01 T02750142  RH  044%=      5-min Rain = 0
KHA2 111535Z 21012KT 28/14 A3018 RMK A01 T02760144  RH  044%=      5-min Rain = 0
KHA2 111536Z 21012KT 28/15 A3018 RMK A01 T02800148  RH  045%=      5-min Rain = 0
KHA2 111537Z 20015KT 28/15 A3018 RMK A01 T02820147  RH  044%=      5-min Rain = 0
KHA2 111538Z 20015KT 28/15 A3018 RMK A01 T02800146  RH  044%=      5-min Rain = 0
KHA2 111539Z 20015KT 28/15 A3018 RMK A01 T02770145  RH  044%=      5-min Rain = 0
KHA2 111540Z 20014KT 28/15 A3018 RMK A01 T02770145  RH  044%=      5-min Rain = 0
KHA2 111541Z 19014KT 28/15 A3018 RMK A01 T02760146  RH  045%=      5-min Rain = 0
KHA2 111542Z 20014KT 28/14 A3018 RMK A01 T02760144  RH  045%=      5-min Rain = 0
KHA2 111543Z 19012KT 27/15 A3018 RMK A01 T02740146  RH  045%=      5-min Rain = 0
KHA2 111544Z 19014KT 28/15 A3018 RMK A01 T02750148  RH  046%=      5-min Rain = 0
KHA2 111545Z 19015KT 28/15 A3018 RMK A01 T02750146  RH  045%=      5-min Rain = 0
KHA2 111546Z 20014KT 28/15 A3018 RMK A01 T02750148  RH  046%=      5-min Rain = 0
KHA2 111547Z 19014KT 28/15 A3018 RMK A01 T02750147  RH  046%=      5-min Rain = 0
KHA2 111548Z 19013KT 27/15 A3018 RMK A01 T02730148  RH  046%=      5-min Rain = 0
KHA2 111549Z 19014KT 27/15 A3018 RMK A01 T02740148  RH  046%=      5-min Rain = 0
KHA2 111550Z 19012KT 27/15 A3018 RMK A01 T02740148  RH  046%=      5-min Rain = 0
KHA2 111551Z 19014KT 27/15 A3018 RMK A01 T02740149  RH  046%=      5-min Rain = 0
KHA2 111552Z 20012KT 28/15 A3018 RMK A01 T02750150  RH  046%=      5-min Rain = 0
KHA2 111553Z 19014KT 28/15 A3018 RMK A01 T02780149  RH  045%=      5-min Rain = 0
KHA2 111554Z 19012KT 28/15 A3018 RMK A01 T02770149  RH  045%=      5-min Rain = 0
KHA2 111555Z 19015KT 28/15 A3018 RMK A01 T02750148  RH  046%=      5-min Rain = 0
KHA2 111556Z 20012KT 28/15 A3018 RMK A01 T02760151  RH  046%=      5-min Rain = 0
KHA2 111557Z 20013KT 28/15 A3018 RMK A01 T02790150  RH  045%=      5-min Rain = 0
KHA2 111558Z 19014KT 28/15 A3018 RMK A01 T02770149  RH  045%=      5-min Rain = 0
KHA2 111559Z 20014KT 28/15 A3018 RMK A01 T02770148  RH  046%=      5-min Rain = 0
KHA2 111600Z 20013KT 28/15 A3018 RMK A01 T02790151  RH  046%=      5-min Rain = 0
KHA2 111601Z 20013KT 28/15 A3018 RMK A01 T02810151  RH  045%=      5-min Rain = 0
KHA2 111602Z 19014KT 28/15 A3018 RMK A01 T02830150  RH  044%=      5-min Rain = 0
KHA2 111603Z 19012G17KT 28/15 A3018 RMK A01 T02840152  RH  045%=      5-min Rain = 0
KHA2 111604Z 19008KT 28/15 A3018 RMK A01 T02840151  RH  044%=      5-min Rain = 0
KHA2 111605Z 19013KT 28/15 A3018 RMK A01 T02830152  RH  045%=      5-min Rain = 0
KHA2 111606Z 19014KT 28/15 A3018 RMK A01 T02830148  RH  044%=      5-min Rain = 0
KHA2 111607Z 20015KT 28/15 A3018 RMK A01 T02810150  RH  045%=      5-min Rain = 0
KHA2 111608Z 20015KT 28/15 A3018 RMK A01 T02810151  RH  045%=      5-min Rain = 0
KHA2 111609Z 20014KT 28/15 A3018 RMK A01 T02840153  RH  045%=      5-min Rain = 0
KHA2 111610Z 20012KT 29/15 A3018 RMK A01 T02850149  RH  044%=      5-min Rain = 0
KHA2 111611Z 19012KT 28/15 A3018 RMK A01 T02830148  RH  044%=      5-min Rain = 0
KHA2 111612Z 20013G18KT 29/15 A3018 RMK A01 T02850149  RH  043%=      5-min Rain = 0
KHA2 111613Z 19015KT 29/15 A3018 RMK A01 T02860149  RH  043%=      5-min Rain = 0
KHA2 111614Z 19013KT 29/15 A3018 RMK A01 T02850149  RH  043%=      5-min Rain = 0
KHA2 111615Z 21013KT 29/15 A3018 RMK A01 T02850148  RH  043%=      5-min Rain = 0
KHA2 111616Z 21012KT 29/15 A3018 RMK A01 T02860149  RH  043%=      5-min Rain = 0
KHA2 111617Z 21012KT 29/15 A3018 RMK A01 T02850149  RH  043%=      5-min Rain = 0
KHA2 111618Z 20013KT 29/15 A3018 RMK A01 T02860151  RH  044%=      5-min Rain = 0
KHA2 111619Z 21014KT 29/15 A3018 RMK A01 T02910147  RH  042%=      5-min Rain = 0
KHA2 111620Z 20013KT 29/14 A3018 RMK A01 T02890144  RH  041%=      5-min Rain = 0
KHA2 111621Z 20013KT 29/15 A3018 RMK A01 T02880147  RH  042%=      5-min Rain = 0
KHA2 111622Z 19014KT 29/15 A3018 RMK A01 T02880146  RH  042%=      5-min Rain = 0
KHA2 111623Z 18012KT 29/14 A3017 RMK A01 T02870144  RH  042%=      5-min Rain = 0
KHA2 111624Z 22010KT 28/15 A3018 RMK A01 T02840146  RH  043%=      5-min Rain = 0
KHA2 111625Z 21015G20KT 29/15 A3017 RMK A01 T02870148  RH  043%=      5-min Rain = 0
KHA2 111626Z 19013KT 29/15 A3018 RMK A01 T02890145  RH  041%=      5-min Rain = 0
KHA2 111627Z 19013KT 29/14 A3018 RMK A01 T02880144  RH  041%=      5-min Rain = 0
KHA2 111628Z 21013KT 29/14 A3018 RMK A01 T02850143  RH  042%=      5-min Rain = 0
KHA2 111629Z 22013KT 29/15 A3018 RMK A01 T02870145  RH  042%=      5-min Rain = 0
KHA2 111630Z 21017KT 29/15 A3018 RMK A01 T02880147  RH  042%=      5-min Rain = 0
KHA2 111631Z 22014KT 29/15 A3018 RMK A01 T02880147  RH  042%=      5-min Rain = 0
KHA2 111632Z 22011KT 29/15 A3018 RMK A01 T02900147  RH  042%=      5-min Rain = 0
KHA2 111633Z 21012KT 29/15 A3018 RMK A01 T02920148  RH  042%=      5-min Rain = 0
KHA2 111634Z 20012KT 29/15 A3018 RMK A01 T02930150  RH  042%=      5-min Rain = 0
KHA2 111635Z 18011KT 29/15 A3018 RMK A01 T02940150  RH  042%=      5-min Rain = 0
KHA2 111636Z 19010KT 29/15 A3018 RMK A01 T02920148  RH  041%=      5-min Rain = 0
KHA2 111637Z 19012G17KT 29/15 A3018 RMK A01 T02920152  RH  043%=      5-min Rain = 0
KHA2 111638Z 20011KT 29/15 A3018 RMK A01 T02910148  RH  042%=      5-min Rain = 0
KHA2 111639Z 18012KT 29/15 A3018 RMK A01 T02880148  RH  042%=      5-min Rain = 0
KHA2 111640Z 18012KT 29/15 A3018 RMK A01 T02890146  RH  042%=      5-min Rain = 0
KHA2 111641Z 19013KT 29/14 A3018 RMK A01 T02900144  RH  041%=      5-min Rain = 0
KHA2 111642Z 19012KT 29/15 A3018 RMK A01 T02900147  RH  042%=      5-min Rain = 0
KHA2 111643Z 19010KT 29/15 A3018 RMK A01 T02890148  RH  042%=      5-min Rain = 0
KHA2 111644Z 19011KT 29/15 A3018 RMK A01 T02880148  RH  042%=      5-min Rain = 0
KHA2 111645Z 19011KT 29/15 A3018 RMK A01 T02890147  RH  042%=      5-min Rain = 0
KHA2 111646Z 19013KT 29/15 A3018 RMK A01 T02890148  RH  042%=      5-min Rain = 0
KHA2 111647Z 19013KT 29/15 A3018 RMK A01 T02890145  RH  041%=      5-min Rain = 0
KHA2 111648Z 19015KT 29/15 A3018 RMK A01 T02880145  RH  042%=      5-min Rain = 0
KHA2 111649Z 18011KT 29/14 A3018 RMK A01 T02890139  RH  040%=      5-min Rain = 0
KHA2 111650Z 20011KT 29/14 A3018 RMK A01 T02890144  RH  041%=      5-min Rain = 0
KHA2 111651Z 19014KT 29/14 A3018 RMK A01 T02940142  RH  039%=      5-min Rain = 0
KHA2 111652Z 18010KT 29/14 A3018 RMK A01 T02940139  RH  039%=      5-min Rain = 0
KHA2 111653Z 20014KT 29/14 A3017 RMK A01 T02910140  RH  040%=      5-min Rain = 0
KHA2 111654Z 20015KT 29/14 A3017 RMK A01 T02920139  RH  039%=      5-min Rain = 0
KHA2 111655Z 19011KT 29/14 A3018 RMK A01 T02920141  RH  040%=      5-min Rain = 0
KHA2 111656Z 20013KT 29/14 A3017 RMK A01 T02900140  RH  040%=      5-min Rain = 0
KHA2 111657Z 21016KT 29/14 A3017 RMK A01 T02890142  RH  040%=      5-min Rain = 0
KHA2 111658Z 21012KT 29/14 A3017 RMK A01 T02900140  RH  040%=      5-min Rain = 0
KHA2 111659Z 22011KT 29/14 A3017 RMK A01 T02880142  RH  041%=      5-min Rain = 0
KHA2 111700Z 21008KT 29/14 A3017 RMK A01 T02890143  RH  041%=      5-min Rain = 0
KHA2 111701Z 21007KT 29/14 A3017 RMK A01 T02890142  RH  041%=      5-min Rain = 0
KHA2 111702Z 20013KT 29/14 A3017 RMK A01 T02910144  RH  041%=      5-min Rain = 0
KHA2 111703Z 21013KT 30/14 A3017 RMK A01 T02960142  RH  039%=      5-min Rain = 0
KHA2 111704Z 21011KT 30/14 A3017 RMK A01 T02960140  RH  039%=      5-min Rain = 0
KHA2 111705Z 18014KT 30/15 A3017 RMK A01 T02950146  RH  040%=      5-min Rain = 0
KHA2 111706Z 18014KT 30/15 A3017 RMK A01 T02980147  RH  040%=      5-min Rain = 0
KHA2 111707Z 17013KT 30/15 A3017 RMK A01 T02990146  RH  039%=      5-min Rain = 0
KHA2 111708Z 18010KT 30/15 A3017 RMK A01 T02980145  RH  039%=      5-min Rain = 0
KHA2 111709Z 18005KT 29/14 A3017 RMK A01 T02940143  RH  040%=      5-min Rain = 0
KHA2 111710Z 17005KT 29/14 A3016 RMK A01 T02930143  RH  040%=      5-min Rain = 0
KHA2 111711Z 20012G17KT 29/15 A3016 RMK A01 T02930145  RH  041%=      5-min Rain = 0
KHA2 111712Z 17011KT 30/15 A3016 RMK A01 T02970146  RH  040%=      5-min Rain = 0
KHA2 111713Z 19014KT 30/15 A3016 RMK A01 T03000147  RH  039%=      5-min Rain = 0
KHA2 111714Z 19010KT 30/14 A3017 RMK A01 T03030144  RH  038%=      5-min Rain = 0
KHA2 111715Z 19011KT 30/14 A3016 RMK A01 T03000143  RH  038%=      5-min Rain = 0
KHA2 111716Z 20010KT 30/14 A3017 RMK A01 T02970142  RH  039%=      5-min Rain = 0
KHA2 111717Z 20007KT 29/14 A3016 RMK A01 T02940142  RH  039%=      5-min Rain = 0
KHA2 111718Z 18005KT 29/14 A3016 RMK A01 T02940142  RH  039%=      5-min Rain = 0
KHA2 111719Z 18005KT 29/14 A3016 RMK A01 T02940144  RH  040%=      5-min Rain = 0
KHA2 111720Z 20007KT 30/14 A3016 RMK A01 T02980144  RH  039%=      5-min Rain = 0
KHA2 111721Z 21008KT 30/14 A3016 RMK A01 T02990142  RH  038%=      5-min Rain = 0
KHA2 111722Z 20014G22KT 30/14 A3016 RMK A01 T02980144  RH  039%=      5-min Rain = 0
KHA2 111723Z 20016KT 30/14 A3016 RMK A01 T03020144  RH  038%=      5-min Rain = 0
KHA2 111724Z 20013G18KT 30/14 A3016 RMK A01 T03040141  RH  037%=      5-min Rain = 0
KHA2 111725Z 21015KT 30/14 A3016 RMK A01 T03030143  RH  038%=      5-min Rain = 0
KHA2 111726Z 21010KT 31/14 A3016 RMK A01 T03070142  RH  037%=      5-min Rain = 0
KHA2 111727Z 21009KT 31/14 A3016 RMK A01 T03060143  RH  037%=      5-min Rain = 0
KHA2 111728Z 23011KT 30/14 A3016 RMK A01 T03030138  RH  037%=      5-min Rain = 0
KHA2 111729Z 18010KT 30/14 A3016 RMK A01 T03020142  RH  038%=      5-min Rain = 0
KHA2 111730Z 17011KT 31/14 A3016 RMK A01 T03050141  RH  037%=      5-min Rain = 0
KHA2 111731Z 19011KT 31/14 A3016 RMK A01 T03060142  RH  037%=      5-min Rain = 0
KHA2 111732Z 19013KT 31/15 A3016 RMK A01 T03100145  RH  037%=      5-min Rain = 0
KHA2 111733Z 18014KT 31/14 A3016 RMK A01 T03100140  RH  036%=      5-min Rain = 0
KHA2 111734Z 18011KT 31/14 A3016 RMK A01 T03050141  RH  037%=      5-min Rain = 0
KHA2 111735Z 18013KT 30/14 A3016 RMK A01 T03030142  RH  037%=      5-min Rain = 0
KHA2 111736Z 19013KT 30/14 A3016 RMK A01 T03020141  RH  038%=      5-min Rain = 0
KHA2 111737Z 20011KT 30/14 A3016 RMK A01 T03020139  RH  037%=      5-min Rain = 0
KHA2 111738Z 21010KT 30/14 A3016 RMK A01 T03010140  RH  037%=      5-min Rain = 0
KHA2 111739Z 20010KT 30/14 A3016 RMK A01 T03040142  RH  037%=      5-min Rain = 0
KHA2 111740Z 19015KT 31/14 A3016 RMK A01 T03060141  RH  037%=      5-min Rain = 0
KHA2 111741Z 18018KT 31/14 A3016 RMK A01 T03070139  RH  036%=      5-min Rain = 0
KHA2 111742Z 19016KT 31/14 A3016 RMK A01 T03080142  RH  036%=      5-min Rain = 0
KHA2 111743Z 18017KT 31/14 A3016 RMK A01 T03100140  RH  035%=      5-min Rain = 0
KHA2 111744Z 17014KT 31/14 A3016 RMK A01 T03090138  RH  035%=      5-min Rain = 0
KHA2 111745Z 19012KT 31/14 A3016 RMK A01 T03050137  RH  036%=      5-min Rain = 0
KHA2 111746Z 18013KT 30/14 A3016 RMK A01 T03030139  RH  037%=      5-min Rain = 0
KHA2 111747Z 18011KT 30/14 A3016 RMK A01 T03030139  RH  037%=      5-min Rain = 0
KHA2 111748Z 17010KT 30/14 A3016 RMK A01 T03000136  RH  037%=      5-min Rain = 0
KHA2 111749Z 16009KT 30/14 A3016 RMK A01 T02980139  RH  038%=      5-min Rain = 0
KHA2 111750Z 17008KT 30/14 A3015 RMK A01 T02980140  RH  038%=      5-min Rain = 0
KHA2 111751Z 18010KT 30/14 A3015 RMK A01 T03020143  RH  038%=      5-min Rain = 0
KHA2 111752Z 17012KT 31/14 A3015 RMK A01 T03050142  RH  037%=      5-min Rain = 0
KHA2 111753Z 17012KT 31/14 A3015 RMK A01 T03070141  RH  037%=      5-min Rain = 0
KHA2 111754Z 21012KT 31/14 A3015 RMK A01 T03060141  RH  036%=      5-min Rain = 0
KHA2 111755Z 20014KT 31/14 A3015 RMK A01 T03090141  RH  036%=      5-min Rain = 0
KHA2 111756Z 19016KT 31/14 A3015 RMK A01 T03110142  RH  036%=      5-min Rain = 0
KHA2 111757Z 20011KT 31/14 A3015 RMK A01 T03120140  RH  035%=      5-min Rain = 0
KHA2 111758Z 18011KT 31/14 A3015 RMK A01 T03110143  RH  036%=      5-min Rain = 0
KHA2 111759Z 17010KT 31/14 A3015 RMK A01 T03110141  RH  035%=      5-min Rain = 0
KHA2 111800Z 17010KT 31/14 A3015 RMK A01 T03080139  RH  036%=      5-min Rain = 0
KHA2 111801Z 19015G20KT 31/14 A3015 RMK A01 T03070138  RH  036%=      5-min Rain = 0
KHA2 111802Z 19017KT 31/14 A3015 RMK A01 T03100137  RH  035%=      5-min Rain = 0
KHA2 111803Z 19016KT 31/14 A3015 RMK A01 T03130138  RH  035%=      5-min Rain = 0
KHA2 111804Z 18014KT 31/14 A3015 RMK A01 T03110139  RH  035%=      5-min Rain = 0
KHA2 111805Z 17015KT 31/14 A3015 RMK A01 T03110141  RH  036%=      5-min Rain = 0
KHA2 111806Z 17010KT 31/14 A3015 RMK A01 T03120141  RH  035%=      5-min Rain = 0
KHA2 111807Z 17012KT 31/14 A3015 RMK A01 T03110140  RH  035%=      5-min Rain = 0
KHA2 111808Z 17008KT 31/14 A3015 RMK A01 T03090139  RH  035%=      5-min Rain = 0
KHA2 111809Z 18009KT 31/14 A3015 RMK A01 T03100143  RH  036%=      5-min Rain = 0
KHA2 111810Z 20016G21KT 31/14 A3015 RMK A01 T03140143  RH  035%=      5-min Rain = 0
KHA2 111811Z 19014KT 32/14 A3015 RMK A01 T03150140  RH  035%=      5-min Rain = 0
KHA2 111812Z 17010KT 31/14 A3015 RMK A01 T03130142  RH  035%=      5-min Rain = 0
KHA2 111813Z 18013KT 31/14 A3015 RMK A01 T03120139  RH  035%=      5-min Rain = 0
KHA2 111814Z 17012KT 31/14 A3015 RMK A01 T03110141  RH  035%=      5-min Rain = 0
KHA2 111815Z 17010KT 31/14 A3015 RMK A01 T03120139  RH  035%=      5-min Rain = 0
KHA2 111816Z 18014G20KT 31/14 A3015 RMK A01 T03120142  RH  036%=      5-min Rain = 0
KHA2 111817Z 20012KT 31/14 A3015 RMK A01 T03140142  RH  035%=      5-min Rain = 0
KHA2 111818Z 17020KT 32/14 A3015 RMK A01 T03150142  RH  035%=      5-min Rain = 0
KHA2 111819Z 17016KT 31/14 A3015 RMK A01 T03140138  RH  034%=      5-min Rain = 0
KHA2 111820Z 18017G22KT 31/14 A3015 RMK A01 T03130140  RH  035%=      5-min Rain = 0
KHA2 111821Z 17015KT 32/14 A3015 RMK A01 T03150135  RH  033%=      5-min Rain = 0
KHA2 111822Z 17014KT 31/14 A3014 RMK A01 T03130138  RH  034%=      5-min Rain = 0
KHA2 111823Z 17016G23KT 32/14 A3014 RMK A01 T03170137  RH  034%=      5-min Rain = 0
KHA2 111824Z 18015KT 32/14 A3014 RMK A01 T03160138  RH  034%=      5-min Rain = 0
KHA2 111825Z 17019KT 32/14 A3014 RMK A01 T03180138  RH  034%=      5-min Rain = 0
KHA2 111826Z 17019KT 32/14 A3014 RMK A01 T03170138  RH  034%=      5-min Rain = 0
KHA2 111827Z 16018KT 32/14 A3014 RMK A01 T03150137  RH  034%=      5-min Rain = 0
KHA2 111828Z 17015KT 31/14 A3014 RMK A01 T03110136  RH  034%=      5-min Rain = 0
KHA2 111829Z 16017KT 31/14 A3014 RMK A01 T03110135  RH  034%=      5-min Rain = 0
KHA2 111830Z 16013KT 31/13 A3014 RMK A01 T03110133  RH  034%=      5-min Rain = 0
KHA2 111831Z 18010KT 31/14 A3014 RMK A01 T03100135  RH  034%=      5-min Rain = 0
KHA2 111832Z 17009KT 31/13 A3014 RMK A01 T03110133  RH  034%=      5-min Rain = 0
KHA2 111833Z 18014KT 31/14 A3014 RMK A01 T03120135  RH  034%=      5-min Rain = 0
KHA2 111834Z 19016G21KT 31/14 A3014 RMK A01 T03130137  RH  034%=      5-min Rain = 0
KHA2 111835Z 19019KT 32/14 A3014 RMK A01 T03210138  RH  033%=      5-min Rain = 0
KHA2 111836Z 19015KT 32/14 A3014 RMK A01 T03210136  RH  033%=      5-min Rain = 0
KHA2 111837Z 20011KT 32/14 A3014 RMK A01 T03190136  RH  033%=      5-min Rain = 0
KHA2 111838Z 18014G19KT 32/14 A3014 RMK A01 T03170137  RH  033%=      5-min Rain = 0
KHA2 111839Z 16014KT 32/14 A3014 RMK A01 T03150139  RH  034%=      5-min Rain = 0
KHA2 111840Z 16013KT 31/14 A3014 RMK A01 T03120138  RH  035%=      5-min Rain = 0
KHA2 111841Z 15013KT 31/14 A3014 RMK A01 T03110137  RH  035%=      5-min Rain = 0
KHA2 111842Z 17013G18KT 31/14 A3014 RMK A01 T03090138  RH  035%=      5-min Rain = 0
KHA2 111843Z 16017G22KT 31/14 A3014 RMK A01 T03120141  RH  035%=      5-min Rain = 0
KHA2 111844Z 18018G23KT 32/14 A3014 RMK A01 T03160140  RH  034%=      5-min Rain = 0
KHA2 111845Z 19015KT 32/14 A3014 RMK A01 T03220141  RH  033%=      5-min Rain = 0
KHA2 111846Z 17015KT 32/14 A3014 RMK A01 T03230141  RH  033%=      5-min Rain = 0
KHA2 111847Z 17014KT 32/14 A3014 RMK A01 T03220140  RH  033%=      5-min Rain = 0
KHA2 111848Z 17017KT 32/14 A3014 RMK A01 T03200141  RH  034%=      5-min Rain = 0
KHA2 111849Z 19014G20KT 32/14 A3013 RMK A01 T03170139  RH  034%=      5-min Rain = 0
KHA2 111850Z 19012KT 32/14 A3014 RMK A01 T03170138  RH  034%=      5-min Rain = 0
KHA2 111851Z 21012KT 32/14 A3013 RMK A01 T03160139  RH  034%=      5-min Rain = 0
KHA2 111852Z 22012KT 32/14 A3013 RMK A01 T03180138  RH  034%=      5-min Rain = 0
KHA2 111853Z 20014KT 32/14 A3013 RMK A01 T03170137  RH  034%=      5-min Rain = 0
KHA2 111854Z 18013KT 32/14 A3013 RMK A01 T03170139  RH  034%=      5-min Rain = 0
KHA2 111855Z 19016G21KT 32/14 A3013 RMK A01 T03170141  RH  034%=      5-min Rain = 0
KHA2 111856Z 18020G25KT 32/14 A3013 RMK A01 T03190141  RH  034%=      5-min Rain = 0
KHA2 111857Z 17017KT 32/14 A3013 RMK A01 T03200140  RH  034%=      5-min Rain = 0
KHA2 111858Z 18016KT 32/14 A3013 RMK A01 T03180140  RH  034%=      5-min Rain = 0
KHA2 111859Z 18015KT 32/14 A3013 RMK A01 T03170140  RH  034%=      5-min Rain = 0
KHA2 111900Z 17012G19KT 32/14 A3013 RMK A01 T03160139  RH  034%=      5-min Rain = 0
KHA2 111901Z 18013KT 31/14 A3013 RMK A01 T03140139  RH  034%=      5-min Rain = 0
KHA2 111902Z 16011G17KT 32/14 A3013 RMK A01 T03150142  RH  035%=      5-min Rain = 0
KHA2 111903Z 16014KT 32/14 A3013 RMK A01 T03200143  RH  034%=      5-min Rain = 0
KHA2 111904Z 17013G18KT 32/14 A3013 RMK A01 T03210143  RH  034%=      5-min Rain = 0
KHA2 111905Z 17014KT 32/14 A3013 RMK A01 T03230142  RH  033%=      5-min Rain = 0
KHA2 111906Z 20018KT 32/14 A3013 RMK A01 T03210140  RH  033%=      5-min Rain = 0
KHA2 111907Z 19015KT 32/14 A3013 RMK A01 T03210138  RH  033%=      5-min Rain = 0
KHA2 111908Z 19012KT 32/14 A3013 RMK A01 T03160139  RH  034%=      5-min Rain = 0
KHA2 111909Z 20014KT 32/14 A3013 RMK A01 T03150140  RH  035%=      5-min Rain = 0
KHA2 111910Z 20017KT 32/14 A3013 RMK A01 T03180142  RH  034%=      5-min Rain = 0
KHA2 111911Z 19016G23KT 32/14 A3013 RMK A01 T03170139  RH  034%=      5-min Rain = 0
KHA2 111912Z 17019KT 31/14 A3013 RMK A01 T03120141  RH  035%=      5-min Rain = 0
KHA2 111913Z 17017KT 31/14 A3013 RMK A01 T03120141  RH  036%=      5-min Rain = 0
KHA2 111914Z 17014G19KT 31/14 A3013 RMK A01 T03130143  RH  036%=      5-min Rain = 0
KHA2 111915Z 18021KT 32/14 A3012 RMK A01 T03160144  RH  035%=      5-min Rain = 0
KHA2 111916Z 17019KT 32/14 A3013 RMK A01 T03160142  RH  035%=      5-min Rain = 0
KHA2 111917Z 18015G20KT 31/14 A3012 RMK A01 T03120140  RH  035%=      5-min Rain = 0
KHA2 111918Z 19012KT 31/14 A3012 RMK A01 T03100140  RH  036%=      5-min Rain = 0
KHA2 111919Z 17010KT 31/14 A3012 RMK A01 T03100141  RH  036%=      5-min Rain = 0
KHA2 111920Z 16016KT 31/14 A3012 RMK A01 T03130143  RH  036%=      5-min Rain = 0
KHA2 111921Z 16017KT 31/14 A3012 RMK A01 T03130141  RH  035%=      5-min Rain = 0
KHA2 111922Z 17014KT 31/14 A3012 RMK A01 T03110140  RH  035%=      5-min Rain = 0
KHA2 111923Z 17013KT 31/14 A3012 RMK A01 T03120142  RH  036%=      5-min Rain = 0
KHA2 111924Z 15017G23KT 31/14 A3012 RMK A01 T03140142  RH  035%=      5-min Rain = 0
KHA2 111925Z 15017KT 32/14 A3012 RMK A01 T03170139  RH  034%=      5-min Rain = 0
KHA2 111926Z 16015KT 32/14 A3012 RMK A01 T03200142  RH  034%=      5-min Rain = 0
KHA2 111927Z 17013KT 32/14 A3012 RMK A01 T03210141  RH  034%=      5-min Rain = 0
KHA2 111928Z 18015G20KT 32/14 A3012 RMK A01 T03200138  RH  033%=      5-min Rain = 0
KHA2 111929Z 16014KT 31/14 A3012 RMK A01 T03140137  RH  034%=      5-min Rain = 0
KHA2 111930Z 16015KT 31/14 A3012 RMK A01 T03140138  RH  034%=      5-min Rain = 0
KHA2 111931Z 16015KT 32/14 A3012 RMK A01 T03160138  RH  034%=      5-min Rain = 0
KHA2 111932Z 17017KT 32/14 A3012 RMK A01 T03220139  RH  033%=      5-min Rain = 0
KHA2 111933Z 17021G26KT 33/14 A3012 RMK A01 T03250136  RH  032%=      5-min Rain = 0
KHA2 111934Z 18013G20KT 32/13 A3012 RMK A01 T03230130  RH  031%=      5-min Rain = 0
KHA2 111935Z 18017KT 32/14 A3012 RMK A01 T03210135  RH  032%=      5-min Rain = 0
KHA2 111936Z 17019G24KT 32/14 A3012 RMK A01 T03230135  RH  032%=      5-min Rain = 0
KHA2 111937Z 18019KT 32/14 A3012 RMK A01 T03240135  RH  032%=      5-min Rain = 0
KHA2 111938Z 20016KT 32/13 A3012 RMK A01 T03240134  RH  032%=      5-min Rain = 0
KHA2 111939Z 18021G32KT 33/14 A3011 RMK A01 T03250136  RH  032%=      5-min Rain = 0
KHA2 111940Z 14021KT 33/13 A3012 RMK A01 T03250134  RH  031%=      5-min Rain = 0
KHA2 111941Z 14017KT 32/13 A3012 RMK A01 T03200132  RH  032%=      5-min Rain = 0
KHA2 111942Z 15012KT 32/13 A3012 RMK A01 T03150130  RH  032%=      5-min Rain = 0
KHA2 111943Z 16011KT 31/13 A3012 RMK A01 T03120131  RH  033%=      5-min Rain = 0
KHA2 111944Z 17012KT 31/13 A3012 RMK A01 T03130133  RH  033%=      5-min Rain = 0
KHA2 111945Z 17012KT 32/13 A3012 RMK A01 T03150132  RH  033%=      5-min Rain = 0
KHA2 111946Z 18014KT 31/13 A3011 RMK A01 T03140133  RH  033%=      5-min Rain = 0
KHA2 111947Z 19015KT 32/14 A3011 RMK A01 T03150137  RH  034%=      5-min Rain = 0
KHA2 111948Z 18015G22KT 32/14 A3011 RMK A01 T03220141  RH  033%=      5-min Rain = 0
KHA2 111949Z 17017G22KT 33/14 A3012 RMK A01 T03280138  RH  032%=      5-min Rain = 0
KHA2 111950Z 17014KT 33/13 A3012 RMK A01 T03270134  RH  031%=      5-min Rain = 0
KHA2 111951Z 16013G18KT 32/13 A3011 RMK A01 T03200130  RH  032%=      5-min Rain = 0
KHA2 111952Z 16009KT 31/13 A3011 RMK A01 T03130130  RH  033%=      5-min Rain = 0
KHA2 111953Z 20016KT 32/14 A3011 RMK A01 T03150136  RH  034%=      5-min Rain = 0
KHA2 111954Z 19014KT 32/14 A3011 RMK A01 T03210136  RH  032%=      5-min Rain = 0
KHA2 111955Z 16015KT 32/14 A3011 RMK A01 T03200136  RH  033%=      5-min Rain = 0
KHA2 111956Z 16014KT 32/14 A3011 RMK A01 T03200136  RH  033%=      5-min Rain = 0
KHA2 111957Z 17014KT 32/13 A3011 RMK A01 T03160133  RH  033%=      5-min Rain = 0
KHA2 111958Z 15013KT 32/14 A3011 RMK A01 T03150136  RH  034%=      5-min Rain = 0
KHA2 111959Z 15011KT 32/14 A3011 RMK A01 T03170135  RH  033%=      5-min Rain = 0
KHA2 112000Z 17011KT 32/14 A3011 RMK A01 T03170136  RH  033%=      5-min Rain = 0
KHA2 112001Z 18017KT 32/14 A3011 RMK A01 T03210139  RH  033%=      5-min Rain = 0
KHA2 112002Z 19019KT 33/14 A3011 RMK A01 T03300142  RH  032%=      5-min Rain = 0
KHA2 112003Z 19016KT 33/14 A3011 RMK A01 T03320139  RH  031%=      5-min Rain = 0
KHA2 112004Z 18012KT 32/14 A3011 RMK A01 T03240135  RH  032%=      5-min Rain = 0
KHA2 112005Z 20015KT 32/14 A3011 RMK A01 T03210138  RH  033%=      5-min Rain = 0
KHA2 112006Z 18011KT 32/14 A3011 RMK A01 T03220138  RH  033%=      5-min Rain = 0
KHA2 112007Z 18014KT 32/14 A3011 RMK A01 T03210137  RH  033%=      5-min Rain = 0
KHA2 112008Z 17012KT 32/14 A3011 RMK A01 T03160136  RH  033%=      5-min Rain = 0
KHA2 112009Z 16010KT 31/14 A3011 RMK A01 T03130135  RH  034%=      5-min Rain = 0
KHA2 112010Z 17014KT 31/14 A3011 RMK A01 T03120135  RH  034%=      5-min Rain = 0
KHA2 112011Z 17014KT 31/14 A3011 RMK A01 T03120136  RH  034%=      5-min Rain = 0
KHA2 112012Z 18018KT 31/14 A3011 RMK A01 T03120137  RH  034%=      5-min Rain = 0
KHA2 112013Z 19016KT 31/14 A3011 RMK A01 T03120136  RH  034%=      5-min Rain = 0
KHA2 112014Z 18011KT 31/14 A3011 RMK A01 T03100136  RH  035%=      5-min Rain = 0
KHA2 112015Z 20011KT 31/14 A301 RMK A01 T03120139  RH  035%=      5-min Rain = 0
KHA2 112016Z 18017KT 32/14 A301 RMK A01 T03190141  RH  034%=      5-min Rain = 0
KHA2 112017Z 19019KT 32/14 A301 RMK A01 T03200140  RH  034%=      5-min Rain = 0
KHA2 112018Z 18017KT 32/14 A301 RMK A01 T03160139  RH  034%=      5-min Rain = 0
KHA2 112019Z 18015KT 31/14 A301 RMK A01 T03130141  RH  035%=      5-min Rain = 0
KHA2 112020Z 18015KT 31/14 A301 RMK A01 T03140142  RH  035%=      5-min Rain = 0
KHA2 112021Z 16019KT 32/14 A301 RMK A01 T03150142  RH  035%=      5-min Rain = 0
KHA2 112022Z 17015KT 32/15 A301 RMK A01 T03170145  RH  035%=      5-min Rain = 0
KHA2 112023Z 18017KT 32/14 A301 RMK A01 T03230144  RH  034%=      5-min Rain = 0
KHA2 112024Z 18017KT 33/14 A301 RMK A01 T03250144  RH  033%=      5-min Rain = 0
KHA2 112025Z 18013KT 33/14 A301 RMK A01 T03250140  RH  033%=      5-min Rain = 0
KHA2 112026Z 18016KT 32/14 A301 RMK A01 T03210141  RH  034%=      5-min Rain = 0
KHA2 112027Z 18017KT 32/14 A301 RMK A01 T03210144  RH  034%=      5-min Rain = 0
KHA2 112028Z 18020KT 33/15 A301 RMK A01 T03280147  RH  034%=      5-min Rain = 0
KHA2 112029Z 18015KT 33/15 A301 RMK A01 T03310145  RH  033%=      5-min Rain = 0
KHA2 112030Z 17013KT 33/14 A301 RMK A01 T03300144  RH  033%=      5-min Rain = 0
KHA2 112031Z 19014KT 33/15 A301 RMK A01 T03300146  RH  033%=      5-min Rain = 0
KHA2 112032Z 19018KT 33/15 A3009 RMK A01 T03340146  RH  032%=      5-min Rain = 0
KHA2 112033Z 19019KT 33/14 A3009 RMK A01 T03330144  RH  032%=      5-min Rain = 0
KHA2 112034Z 18015KT 34/15 A3009 RMK A01 T03350148  RH  032%=      5-min Rain = 0
KHA2 112035Z 16017KT 34/15 A3009 RMK A01 T03390146  RH  032%=      5-min Rain = 0
KHA2 112036Z 15022KT 34/14 A3009 RMK A01 T03350143  RH  031%=      5-min Rain = 0
KHA2 112037Z 17020KT 33/14 A3009 RMK A01 T03290141  RH  032%=      5-min Rain = 0
KHA2 112038Z 17016KT 33/14 A3009 RMK A01 T03260142  RH  033%=      5-min Rain = 0
KHA2 112039Z 18018KT 33/15 A3009 RMK A01 T03270145  RH  033%=      5-min Rain = 0
KHA2 112040Z 17015KT 33/15 A3009 RMK A01 T03330148  RH  033%=      5-min Rain = 0
KHA2 112041Z 18017KT 34/15 A3009 RMK A01 T03370147  RH  032%=      5-min Rain = 0
KHA2 112042Z 16015KT 34/15 A3009 RMK A01 T03360147  RH  032%=      5-min Rain = 0
KHA2 112043Z 15017KT 34/14 A3009 RMK A01 T03360144  RH  032%=      5-min Rain = 0
KHA2 112044Z 16014G20KT 33/14 A3009 RMK A01 T03300143  RH  032%=      5-min Rain = 0
KHA2 112045Z 18016KT 32/14 A3009 RMK A01 T03240143  RH  033%=      5-min Rain = 0
KHA2 112046Z 19016KT 32/14 A3009 RMK A01 T03200142  RH  034%=      5-min Rain = 0
KHA2 112047Z 19016KT 32/14 A3009 RMK A01 T03190140  RH  034%=      5-min Rain = 0
KHA2 112048Z 18019KT 32/14 A3009 RMK A01 T03170140  RH  034%=      5-min Rain = 0
KHA2 112049Z 16017KT 32/14 A3009 RMK A01 T03160141  RH  035%=      5-min Rain = 0
KHA2 112050Z 16017KT 32/14 A3009 RMK A01 T03150141  RH  035%=      5-min Rain = 0
KHA2 112051Z 15017G22KT 32/14 A3009 RMK A01 T03190141  RH  034%=      5-min Rain = 0
KHA2 112052Z 16017KT 32/14 A3009 RMK A01 T03230142  RH  033%=      5-min Rain = 0
KHA2 112053Z 16014KT 33/14 A3009 RMK A01 T03260141  RH  033%=      5-min Rain = 0
KHA2 112054Z 16017G23KT 33/14 A3009 RMK A01 T03270142  RH  033%=      5-min Rain = 0
KHA2 112055Z 18016KT 33/14 A3009 RMK A01 T03250141  RH  033%=      5-min Rain = 0
KHA2 112056Z 16013KT 32/14 A3009 RMK A01 T03210140  RH  033%=      5-min Rain = 0
KHA2 112057Z 18016G21KT 32/14 A3009 RMK A01 T03200141  RH  034%=      5-min Rain = 0
KHA2 112058Z 18017KT 32/14 A3008 RMK A01 T03210139  RH  033%=      5-min Rain = 0
KHA2 112059Z 16015KT 32/14 A3008 RMK A01 T03230140  RH  033%=      5-min Rain = 0
KHA2 112100Z 17013KT 32/14 A3008 RMK A01 T03240139  RH  033%=      5-min Rain = 0
KHA2 112101Z 17013G19KT 32/14 A3008 RMK A01 T03240141  RH  033%=      5-min Rain = 0
KHA2 112102Z 18020KT 33/14 A3008 RMK A01 T03310144  RH  032%=      5-min Rain = 0
KHA2 112103Z 17019KT 33/14 A3008 RMK A01 T03310139  RH  031%=      5-min Rain = 0
KHA2 112104Z 17016KT 33/14 A3008 RMK A01 T03260137  RH  032%=      5-min Rain = 0
KHA2 112105Z 17012KT 32/14 A3008 RMK A01 T03210137  RH  033%=      5-min Rain = 0
KHA2 112106Z 16012KT 32/14 A3008 RMK A01 T03180135  RH  033%=      5-min Rain = 0
KHA2 112107Z 16016KT 32/14 A3008 RMK A01 T03170140  RH  034%=      5-min Rain = 0
KHA2 112108Z 18018KT 32/14 A3008 RMK A01 T03240142  RH  033%=      5-min Rain = 0
KHA2 112109Z 19017KT 33/14 A3008 RMK A01 T03260138  RH  032%=      5-min Rain = 0
KHA2 112110Z 20015KT 33/14 A3008 RMK A01 T03260138  RH  032%=      5-min Rain = 0
KHA2 112111Z 19013KT 33/14 A3008 RMK A01 T03280138  RH  032%=      5-min Rain = 0
KHA2 112112Z 17011KT 33/14 A3008 RMK A01 T03280138  RH  032%=      5-min Rain = 0
KHA2 112113Z 16014KT 33/14 A3008 RMK A01 T03270141  RH  033%=      5-min Rain = 0
KHA2 112114Z 16017KT 33/14 A3008 RMK A01 T03300140  RH  032%=      5-min Rain = 0
KHA2 112115Z 17018KT 33/14 A3008 RMK A01 T03330141  RH  031%=      5-min Rain = 0
KHA2 112116Z 17015KT 34/14 A3008 RMK A01 T03350139  RH  031%=      5-min Rain = 0
KHA2 112117Z 17013KT 33/14 A3008 RMK A01 T03300138  RH  031%=      5-min Rain = 0
KHA2 112118Z 17014KT 33/14 A3007 RMK A01 T03260136  RH  032%=      5-min Rain = 0
KHA2 112119Z 18013KT 33/14 A3007 RMK A01 T03250138  RH  032%=      5-min Rain = 0
KHA2 112120Z 19016G23KT 33/14 A3007 RMK A01 T03290140  RH  032%=      5-min Rain = 0
KHA2 112121Z 19019KT 33/14 A3007 RMK A01 T03340140  RH  031%=      5-min Rain = 0
KHA2 112122Z 19015KT 33/13 A3007 RMK A01 T03300134  RH  031%=      5-min Rain = 0
KHA2 112123Z 20015KT 33/14 A3007 RMK A01 T03290137  RH  031%=      5-min Rain = 0
KHA2 112124Z 20015KT 33/14 A3007 RMK A01 T03270136  RH  031%=      5-min Rain = 0
KHA2 112125Z 19021KT 33/14 A3007 RMK A01 T03250139  RH  032%=      5-min Rain = 0
KHA2 112126Z 18017G22KT 32/14 A3007 RMK A01 T03240138  RH  033%=      5-min Rain = 0
KHA2 112127Z 19014KT 32/14 A3007 RMK A01 T03230140  RH  033%=      5-min Rain = 0
KHA2 112128Z 19019G24KT 33/15 A3007 RMK A01 T03290145  RH  033%=      5-min Rain = 0
KHA2 112129Z 19017KT 33/14 A3007 RMK A01 T03310141  RH  032%=      5-min Rain = 0
KHA2 112130Z 18014KT 33/14 A3007 RMK A01 T03290141  RH  032%=      5-min Rain = 0
KHA2 112131Z 18016KT 33/14 A3007 RMK A01 T03290142  RH  032%=      5-min Rain = 0
KHA2 112132Z 17018G24KT 33/14 A3007 RMK A01 T03290141  RH  032%=      5-min Rain = 0
KHA2 112133Z 16020G25KT 33/14 A3007 RMK A01 T03290141  RH  032%=      5-min Rain = 0
KHA2 112134Z 17016KT 33/14 A3007 RMK A01 T03290141  RH  032%=      5-min Rain = 0
KHA2 112135Z 16015KT 33/14 A3007 RMK A01 T03260140  RH  032%=      5-min Rain = 0
KHA2 112136Z 16013KT 32/14 A3007 RMK A01 T03210140  RH  034%=      5-min Rain = 0
KHA2 112137Z 17018KT 33/15 A3007 RMK A01 T03260145  RH  034%=      5-min Rain = 0
KHA2 112138Z 17018KT 33/14 A3007 RMK A01 T03280142  RH  033%=      5-min Rain = 0
KHA2 112139Z 17019KT 33/14 A3006 RMK A01 T03260142  RH  033%=      5-min Rain = 0
KHA2 112140Z 17017KT 33/14 A3007 RMK A01 T03280144  RH  033%=      5-min Rain = 0
KHA2 112141Z 16016KT 33/14 A3007 RMK A01 T03310144  RH  032%=      5-min Rain = 0
KHA2 112142Z 17014KT 33/14 A3007 RMK A01 T03310144  RH  032%=      5-min Rain = 0
KHA2 112143Z 17016KT 33/15 A3006 RMK A01 T03310145  RH  033%=      5-min Rain = 0
KHA2 112144Z 17018KT 33/14 A3006 RMK A01 T03320144  RH  032%=      5-min Rain = 0
KHA2 112145Z 16017G24KT 33/15 A3006 RMK A01 T03300147  RH  033%=      5-min Rain = 0
KHA2 112146Z 17019KT 34/15 A3006 RMK A01 T03360147  RH  032%=      5-min Rain = 0
KHA2 112147Z 17017KT 33/14 A3006 RMK A01 T03340143  RH  032%=      5-min Rain = 0
KHA2 112148Z 17016KT 33/14 A3006 RMK A01 T03320144  RH  032%=      5-min Rain = 0
KHA2 112149Z 18017KT 33/14 A3006 RMK A01 T03320142  RH  032%=      5-min Rain = 0
KHA2 112150Z 18013KT 33/14 A3006 RMK A01 T03290140  RH  032%=      5-min Rain = 0
KHA2 112151Z 17015KT 32/14 A3006 RMK A01 T03240140  RH  033%=      5-min Rain = 0
KHA2 112152Z 16016KT 32/14 A3006 RMK A01 T03220142  RH  034%=      5-min Rain = 0
KHA2 112153Z 16016KT 32/14 A3006 RMK A01 T03220142  RH  034%=      5-min Rain = 0
KHA2 112154Z 18019KT 32/14 A3006 RMK A01 T03240144  RH  034%=      5-min Rain = 0
KHA2 112155Z 18016KT 32/14 A3006 RMK A01 T03230142  RH  033%=      5-min Rain = 0
KHA2 112156Z 19019KT 32/14 A3006 RMK A01 T03220142  RH  034%=      5-min Rain = 0
KHA2 112157Z 19020KT 33/14 A3006 RMK A01 T03280142  RH  033%=      5-min Rain = 0
KHA2 112158Z 18014G20KT 33/14 A3006 RMK A01 T03320142  RH  032%=      5-min Rain = 0
KHA2 112159Z 17013KT 34/14 A3006 RMK A01 T03350142  RH  031%=      5-min Rain = 0
KHA2 112200Z 18016G21KT 33/15 A3006 RMK A01 T03330145  RH  032%=      5-min Rain = 0
KHA2 112201Z 18016G21KT 33/14 A3006 RMK A01 T03340144  RH  032%=      5-min Rain = 0
KHA2 112202Z 18016KT 34/15 A3006 RMK A01 T03360145  RH  032%=      5-min Rain = 0
KHA2 112203Z 18013KT 34/15 A3006 RMK A01 T03410147  RH  031%=      5-min Rain = 0
KHA2 112204Z 17016KT 34/15 A3006 RMK A01 T03420145  RH  031%=      5-min Rain = 0
KHA2 112205Z 18017KT 34/14 A3006 RMK A01 T03370142  RH  031%=      5-min Rain = 0
KHA2 112206Z 18013KT 33/14 A3006 RMK A01 T03310137  RH  031%=      5-min Rain = 0
KHA2 112207Z 17021KT 33/14 A3006 RMK A01 T03280142  RH  033%=      5-min Rain = 0
KHA2 112208Z 16019G24KT 33/14 A3006 RMK A01 T03260142  RH  033%=      5-min Rain = 0
KHA2 112209Z 16020KT 32/14 A3006 RMK A01 T03240141  RH  033%=      5-min Rain = 0
KHA2 112210Z 17019KT 32/14 A3006 RMK A01 T03190140  RH  034%=      5-min Rain = 0
KHA2 112211Z 17015KT 32/14 A3006 RMK A01 T03160141  RH  035%=      5-min Rain = 0
KHA2 112212Z 18018KT 32/14 A3006 RMK A01 T03150141  RH  035%=      5-min Rain = 0
KHA2 112213Z 17017KT 31/14 A3006 RMK A01 T03140141  RH  035%=      5-min Rain = 0
KHA2 112214Z 17017KT 32/14 A3006 RMK A01 T03160143  RH  035%=      5-min Rain = 0
KHA2 112215Z 17016KT 32/14 A3006 RMK A01 T03150139  RH  034%=      5-min Rain = 0
KHA2 112216Z 18016G22KT 31/14 A3006 RMK A01 T03140141  RH  035%=      5-min Rain = 0
KHA2 112217Z 18016G21KT 32/14 A3006 RMK A01 T03160142  RH  035%=      5-min Rain = 0
KHA2 112218Z 17016KT 32/14 A3006 RMK A01 T03180141  RH  034%=      5-min Rain = 0
KHA2 112219Z 17017KT 32/14 A3006 RMK A01 T03180142  RH  034%=      5-min Rain = 0
KHA2 112220Z 17018KT 32/14 A3006 RMK A01 T03160141  RH  034%=      5-min Rain = 0
KHA2 112221Z 17016KT 31/14 A3006 RMK A01 T03140140  RH  035%=      5-min Rain = 0
KHA2 112222Z 17015KT 31/14 A3006 RMK A01 T03130140  RH  035%=      5-min Rain = 0
KHA2 112223Z 18017KT 31/14 A3006 RMK A01 T03130141  RH  035%=      5-min Rain = 0
KHA2 112224Z 18016KT 31/14 A3006 RMK A01 T03130140  RH  035%=      5-min Rain = 0
KHA2 112225Z 18015KT 31/14 A3006 RMK A01 T03140140  RH  035%=      5-min Rain = 0
KHA2 112226Z 17014KT 31/14 A3006 RMK A01 T03130139  RH  035%=      5-min Rain = 0
KHA2 112227Z 17013KT 31/14 A3006 RMK A01 T03120141  RH  035%=      5-min Rain = 0
KHA2 112228Z 18018KT 31/14 A3006 RMK A01 T03130141  RH  035%=      5-min Rain = 0
KHA2 112229Z 18018KT 31/14 A3006 RMK A01 T03140140  RH  035%=      5-min Rain = 0
KHA2 112230Z 18014KT 31/14 A3006 RMK A01 T03140139  RH  035%=      5-min Rain = 0
KHA2 112231Z 18017KT 31/14 A3005 RMK A01 T03140139  RH  034%=      5-min Rain = 0
KHA2 112232Z 19018KT 31/14 A3005 RMK A01 T03140139  RH  034%=      5-min Rain = 0
KHA2 112233Z 18015KT 32/14 A3005 RMK A01 T03200142  RH  034%=      5-min Rain = 0
KHA2 112234Z 19016KT 33/14 A3005 RMK A01 T03280142  RH  033%=      5-min Rain = 0
KHA2 112235Z 17017KT 33/14 A3005 RMK A01 T03270138  RH  032%=      5-min Rain = 0
KHA2 112236Z 17016KT 32/14 A3005 RMK A01 T03240137  RH  032%=      5-min Rain = 0
KHA2 112237Z 19015KT 32/14 A3005 RMK A01 T03240139  RH  033%=      5-min Rain = 0
KHA2 112238Z 18021KT 33/14 A3005 RMK A01 T03260139  RH  032%=      5-min Rain = 0
KHA2 112239Z 19019KT 33/14 A3005 RMK A01 T03250137  RH  032%=      5-min Rain = 0
KHA2 112240Z 18017KT 32/14 A3005 RMK A01 T03220135  RH  032%=      5-min Rain = 0
KHA2 112241Z 18014KT 32/14 A3005 RMK A01 T03190135  RH  033%=      5-min Rain = 0
KHA2 112242Z 17016KT 32/14 A3005 RMK A01 T03180137  RH  033%=      5-min Rain = 0
KHA2 112243Z 19014KT 32/14 A3005 RMK A01 T03170136  RH  033%=      5-min Rain = 0
KHA2 112244Z 18013KT 32/14 A3005 RMK A01 T03160136  RH  033%=      5-min Rain = 0
KHA2 112245Z 18014G21KT 32/14 A3005 RMK A01 T03160137  RH  034%=      5-min Rain = 0
KHA2 112246Z 16015KT 32/14 A3005 RMK A01 T03180139  RH  034%=      5-min Rain = 0
KHA2 112247Z 15016KT 32/14 A3005 RMK A01 T03210138  RH  033%=      5-min Rain = 0
KHA2 112248Z 16015KT 32/14 A3005 RMK A01 T03220138  RH  033%=      5-min Rain = 0
KHA2 112249Z 17016KT 32/14 A3005 RMK A01 T03240138  RH  032%=      5-min Rain = 0
KHA2 112250Z 18016KT 32/14 A3005 RMK A01 T03240137  RH  032%=      5-min Rain = 0
KHA2 112251Z 19014KT 32/14 A3005 RMK A01 T03230135  RH  032%=      5-min Rain = 0
KHA2 112252Z 18012KT 32/14 A3005 RMK A01 T03220135  RH  032%=      5-min Rain = 0
KHA2 112253Z 18017KT 32/14 A3005 RMK A01 T03220135  RH  032%=      5-min Rain = 0
KHA2 112254Z 17019KT 32/13 A3005 RMK A01 T03230134  RH  032%=      5-min Rain = 0
KHA2 112255Z 18018KT 33/13 A3005 RMK A01 T03250133  RH  031%=      5-min Rain = 0
KHA2 112256Z 17017KT 33/14 A3005 RMK A01 T03270135  RH  031%=      5-min Rain = 0
KHA2 112257Z 17016KT 33/13 A3005 RMK A01 T03260133  RH  031%=      5-min Rain = 0
KHA2 112258Z 18016KT 32/14 A3005 RMK A01 T03240135  RH  032%=      5-min Rain = 0
KHA2 112259Z 17015KT 32/13 A3005 RMK A01 T03240134  RH  032%=      5-min Rain = 0
KHA2 112300Z 17018KT 32/13 A3005 RMK A01 T03230134  RH  032%=      5-min Rain = 0
KHA2 112301Z 17018KT 32/14 A3005 RMK A01 T03230135  RH  032%=      5-min Rain = 0
KHA2 112302Z 17018KT 33/14 A3005 RMK A01 T03250135  RH  032%=      5-min Rain = 0
KHA2 112303Z 17017KT 33/13 A3005 RMK A01 T03250133  RH  031%=      5-min Rain = 0
KHA2 112304Z 17015KT 32/13 A3005 RMK A01 T03220133  RH  032%=      5-min Rain = 0
KHA2 112305Z 17015KT 32/13 A3005 RMK A01 T03200133  RH  032%=      5-min Rain = 0
KHA2 112306Z 19016KT 32/13 A3005 RMK A01 T03180133  RH  032%=      5-min Rain = 0
KHA2 112307Z 18018KT 32/13 A3005 RMK A01 T03180132  RH  032%=      5-min Rain = 0
KHA2 112308Z 17018KT 32/13 A3005 RMK A01 T03180132  RH  032%=      5-min Rain = 0
KHA2 112309Z 16015KT 32/13 A3005 RMK A01 T03180132  RH  032%=      5-min Rain = 0
KHA2 112310Z 17014KT 32/13 A3005 RMK A01 T03220133  RH  032%=      5-min Rain = 0
KHA2 112311Z 17017KT 32/13 A3005 RMK A01 T03230134  RH  032%=      5-min Rain = 0
KHA2 112312Z 18016KT 32/13 A3005 RMK A01 T03240134  RH  031%=      5-min Rain = 0
KHA2 112313Z 18017KT 33/13 A3005 RMK A01 T03260134  RH  031%=      5-min Rain = 0
KHA2 112314Z 19017KT 33/13 A3005 RMK A01 T03250134  RH  031%=      5-min Rain = 0
KHA2 112315Z 18020KT 32/13 A3005 RMK A01 T03230133  RH  032%=      5-min Rain = 0
KHA2 112316Z 18018KT 32/13 A3005 RMK A01 T03200133  RH  032%=      5-min Rain = 0
KHA2 112317Z 18020KT 32/13 A3005 RMK A01 T03190133  RH  032%=      5-min Rain = 0
KHA2 112318Z 19016KT 32/13 A3005 RMK A01 T03180132  RH  032%=      5-min Rain = 0
KHA2 112319Z 20017KT 32/13 A3005 RMK A01 T03170131  RH  032%=      5-min Rain = 0
KHA2 112320Z 19020KT 32/13 A3005 RMK A01 T03170130  RH  032%=      5-min Rain = 0
KHA2 112321Z 18016KT 32/13 A3005 RMK A01 T03170132  RH  032%=      5-min Rain = 0
KHA2 112322Z 16017KT 32/13 A3005 RMK A01 T03160134  RH  033%=      5-min Rain = 0
KHA2 112323Z 17017KT 32/13 A3005 RMK A01 T03160133  RH  033%=      5-min Rain = 0
KHA2 112324Z 17016KT 32/13 A3005 RMK A01 T03150134  RH  033%=      5-min Rain = 0
KHA2 112325Z 16017KT 32/14 A3005 RMK A01 T03160135  RH  033%=      5-min Rain = 0
KHA2 112326Z 16017KT 32/14 A3005 RMK A01 T03190136  RH  033%=      5-min Rain = 0
KHA2 112327Z 16017KT 32/13 A3005 RMK A01 T03200134  RH  032%=      5-min Rain = 0
KHA2 112328Z 17016KT 32/13 A3005 RMK A01 T03190133  RH  032%=      5-min Rain = 0
KHA2 112329Z 17017KT 32/13 A3005 RMK A01 T03170133  RH  033%=      5-min Rain = 0
KHA2 112330Z 17014KT 32/13 A3005 RMK A01 T03160133  RH  033%=      5-min Rain = 0
KHA2 112331Z 17015KT 32/14 A3005 RMK A01 T03180135  RH  033%=      5-min Rain = 0
KHA2 112332Z 17019KT 32/13 A3005 RMK A01 T03190133  RH  032%=      5-min Rain = 0
KHA2 112333Z 18020KT 32/13 A3005 RMK A01 T03180131  RH  032%=      5-min Rain = 0
KHA2 112334Z 18019KT 32/13 A3005 RMK A01 T03170132  RH  032%=      5-min Rain = 0
KHA2 112335Z 18016KT 32/13 A3005 RMK A01 T03170132  RH  032%=      5-min Rain = 0
KHA2 112336Z 17016KT 32/13 A3005 RMK A01 T03170131  RH  032%=      5-min Rain = 0
KHA2 112337Z 17016KT 32/13 A3005 RMK A01 T03170131  RH  032%=      5-min Rain = 0
KHA2 112338Z 18015KT 32/13 A3005 RMK A01 T03210132  RH  032%=      5-min Rain = 0
KHA2 112339Z 18014KT 32/13 A3005 RMK A01 T03220132  RH  031%=      5-min Rain = 0
KHA2 112340Z 19017KT 32/13 A3005 RMK A01 T03210132  RH  032%=      5-min Rain = 0
KHA2 112341Z 17016KT 32/13 A3005 RMK A01 T03200132  RH  032%=      5-min Rain = 0
KHA2 112342Z 17015KT 32/13 A3005 RMK A01 T03200132  RH  032%=      5-min Rain = 0
KHA2 112343Z 16016KT 32/13 A3005 RMK A01 T03180131  RH  032%=      5-min Rain = 0
KHA2 112344Z 16016KT 32/13 A3005 RMK A01 T03170130  RH  032%=      5-min Rain = 0
KHA2 112345Z 16017KT 32/13 A3005 RMK A01 T03170130  RH  032%=      5-min Rain = 0
KHA2 112346Z 17015KT 32/13 A3005 RMK A01 T03160129  RH  032%=      5-min Rain = 0
KHA2 112347Z 17014G19KT 32/13 A3005 RMK A01 T03160130  RH  032%=      5-min Rain = 0
KHA2 112348Z 18018KT 32/13 A3005 RMK A01 T03160131  RH  032%=      5-min Rain = 0
KHA2 112349Z 18018KT 32/13 A3005 RMK A01 T03150130  RH  032%=      5-min Rain = 0
KHA2 112350Z 18016KT 31/13 A3005 RMK A01 T03140129  RH  032%=      5-min Rain = 0
KHA2 112351Z 17016KT 31/13 A3005 RMK A01 T03130130  RH  033%=      5-min Rain = 0
KHA2 112352Z 18017KT 31/13 A3005 RMK A01 T03120130  RH  033%=      5-min Rain = 0
KHA2 112353Z 17015KT 31/13 A3005 RMK A01 T03120130  RH  033%=      5-min Rain = 0
KHA2 112354Z 17015KT 31/13 A3005 RMK A01 T03110130  RH  033%=      5-min Rain = 0
KHA2 112355Z 18014KT 31/13 A3005 RMK A01 T03110130  RH  033%=      5-min Rain = 0
KHA2 112356Z 18014KT 31/13 A3005 RMK A01 T03110130  RH  033%=      5-min Rain = 0
KHA2 112357Z 18016KT 31/13 A3005 RMK A01 T03110130  RH  033%=      5-min Rain = 0
KHA2 112358Z 18015KT 31/13 A3005 RMK A01 T03110130  RH  033%=      5-min Rain = 0
KHA2 112359Z 18014KT 31/13 A3005 RMK A01 T03110129  RH  033%=      5-min Rain = 0
KHA2 120000Z 18016KT 31/13 A3005 RMK A01 T03100129  RH  033%=      5-min Rain = 0
KHA2 120001Z 18015KT 31/13 A3005 RMK A01 T03100129  RH  033%=      5-min Rain = 0
KHA2 120002Z 18015KT 31/13 A3005 RMK A01 T03100129  RH  033%=      5-min Rain = 0
KHA2 120003Z 18015G21KT 31/13 A3005 RMK A01 T03100130  RH  033%=      5-min Rain = 0
KHA2 120004Z 18018KT 31/13 A3005 RMK A01 T03100129  RH  033%=      5-min Rain = 0
KHA2 120005Z 18014KT 31/13 A3006 RMK A01 T03100129  RH  033%=      5-min Rain = 0
KHA2 120006Z 19016KT 31/13 A3006 RMK A01 T03100130  RH  033%=      5-min Rain = 0
KHA2 120007Z 18016KT 31/13 A3006 RMK A01 T03090130  RH  033%=      5-min Rain = 0
KHA2 120008Z 19015KT 31/13 A3006 RMK A01 T03090130  RH  033%=      5-min Rain = 0
KHA2 120009Z 18015KT 31/13 A3006 RMK A01 T03090129  RH  033%=      5-min Rain = 0
KHA2 120010Z 19015KT 31/13 A3006 RMK A01 T03090129  RH  033%=      5-min Rain = 0
KHA2 120011Z 19018KT 31/13 A3006 RMK A01 T03090129  RH  033%=      5-min Rain = 0
KHA2 120012Z 18018KT 31/13 A3006 RMK A01 T03090128  RH  033%=      5-min Rain = 0
KHA2 120013Z 18016KT 31/13 A3006 RMK A01 T03090128  RH  033%=      5-min Rain = 0
KHA2 120014Z 18016KT 31/13 A3006 RMK A01 T03090129  RH  033%=      5-min Rain = 0
KHA2 120015Z 17016KT 31/13 A3006 RMK A01 T03090129  RH  033%=      5-min Rain = 0
KHA2 120016Z 18014KT 31/13 A3006 RMK A01 T03090129  RH  033%=      5-min Rain = 0
KHA2 120017Z 18015KT 31/13 A3006 RMK A01 T03080129  RH  033%=      5-min Rain = 0
KHA2 120018Z 18014KT 31/13 A3006 RMK A01 T03090130  RH  034%=      5-min Rain = 0
KHA2 120019Z 19015KT 31/13 A3006 RMK A01 T03080130  RH  034%=      5-min Rain = 0
KHA2 120020Z 18013KT 31/13 A3006 RMK A01 T03080130  RH  034%=      5-min Rain = 0
KHA2 120021Z 17015G21KT 31/13 A3006 RMK A01 T03070130  RH  034%=      5-min Rain = 0
KHA2 120022Z 17016KT 31/13 A3006 RMK A01 T03070129  RH  034%=      5-min Rain = 0
KHA2 120023Z 18014KT 31/13 A3006 RMK A01 T03060128  RH  034%=      5-min Rain = 0
KHA2 120024Z 18014KT 31/13 A3006 RMK A01 T03060128  RH  034%=      5-min Rain = 0
KHA2 120025Z 18012KT 31/13 A3006 RMK A01 T03060128  RH  034%=      5-min Rain = 0
KHA2 120026Z 18014KT 31/13 A3006 RMK A01 T03060128  RH  034%=      5-min Rain = 0
KHA2 120027Z 18014KT 31/13 A3006 RMK A01 T03060128  RH  034%=      5-min Rain = 0
KHA2 120028Z 18014KT 31/13 A3006 RMK A01 T03060129  RH  034%=      5-min Rain = 0
KHA2 120029Z 18014KT 31/13 A3006 RMK A01 T03060129  RH  034%=      5-min Rain = 0
KHA2 120030Z 18015KT 31/13 A3006 RMK A01 T03060129  RH  034%=      5-min Rain = 0
KHA2 120031Z 18014KT 31/13 A3006 RMK A01 T03060129  RH  034%=      5-min Rain = 0
KHA2 120032Z 18016KT 31/13 A3006 RMK A01 T03070131  RH  034%=      5-min Rain = 0
KHA2 120033Z 18016KT 31/13 A3006 RMK A01 T03070130  RH  034%=      5-min Rain = 0
KHA2 120034Z 18015KT 31/13 A3006 RMK A01 T03070130  RH  034%=      5-min Rain = 0
KHA2 120035Z 17017KT 31/13 A3006 RMK A01 T03070131  RH  034%=      5-min Rain = 0
KHA2 120036Z 18016KT 31/13 A3006 RMK A01 T03070131  RH  034%=      5-min Rain = 0
KHA2 120037Z 18015KT 31/13 A3006 RMK A01 T03070131  RH  034%=      5-min Rain = 0
KHA2 120038Z 18014KT 31/13 A3006 RMK A01 T03060131  RH  034%=      5-min Rain = 0
KHA2 120039Z 18012KT 31/13 A3006 RMK A01 T03060130  RH  034%=      5-min Rain = 0
KHA2 120040Z 18013KT 31/13 A3006 RMK A01 T03060131  RH  034%=      5-min Rain = 0
KHA2 120041Z 18012KT 31/13 A3006 RMK A01 T03060131  RH  034%=      5-min Rain = 0
KHA2 120042Z 17013G23KT 31/13 A3006 RMK A01 T03070133  RH  034%=      5-min Rain = 0
KHA2 120043Z 18018KT 31/13 A3006 RMK A01 T03090133  RH  034%=      5-min Rain = 0
KHA2 120044Z 18017KT 31/13 A3006 RMK A01 T03100133  RH  034%=      5-min Rain = 0
KHA2 120045Z 18014KT 31/13 A3006 RMK A01 T03100132  RH  034%=      5-min Rain = 0
KHA2 120046Z 18017KT 31/13 A3006 RMK A01 T03100132  RH  034%=      5-min Rain = 0
KHA2 120047Z 18017KT 31/13 A3006 RMK A01 T03100132  RH  034%=      5-min Rain = 0
KHA2 120048Z 18016KT 31/13 A3006 RMK A01 T03100132  RH  034%=      5-min Rain = 0
KHA2 120049Z 18015KT 31/13 A3006 RMK A01 T03090132  RH  034%=      5-min Rain = 0
KHA2 120050Z 17015KT 31/13 A3006 RMK A01 T03080132  RH  034%=      5-min Rain = 0
KHA2 120051Z 17013KT 31/13 A3006 RMK A01 T03080132  RH  034%=      5-min Rain = 0
KHA2 120052Z 17016KT 31/13 A3006 RMK A01 T03070133  RH  035%=      5-min Rain = 0
KHA2 120053Z 17016KT 31/13 A3006 RMK A01 T03060132  RH  034%=      5-min Rain = 0
KHA2 120054Z 17016KT 31/13 A3006 RMK A01 T03060131  RH  034%=      5-min Rain = 0
KHA2 120055Z 17013KT 31/13 A3006 RMK A01 T03060132  RH  035%=      5-min Rain = 0
KHA2 120056Z 17013KT 31/13 A3006 RMK A01 T03050133  RH  035%=      5-min Rain = 0
KHA2 120057Z 17014KT 31/13 A3006 RMK A01 T03050133  RH  035%=      5-min Rain = 0
KHA2 120058Z 16012KT 31/13 A3006 RMK A01 T03050133  RH  035%=      5-min Rain = 0
KHA2 120059Z 17016KT 31/13 A3006 RMK A01 T03060132  RH  035%=      5-min Rain = 0
KHA2 120100Z 16014KT 31/13 A3006 RMK A01 T03070131  RH  034%=      5-min Rain = 0
KHA2 120101Z 16015KT 31/13 A3006 RMK A01 T03070130  RH  034%=      5-min Rain = 0
KHA2 120102Z 16013KT 31/13 A3006 RMK A01 T03070130  RH  034%=      5-min Rain = 0
KHA2 120103Z 16014KT 31/13 A3006 RMK A01 T03070130  RH  034%=      5-min Rain = 0
KHA2 120104Z 16013G18KT 31/13 A3006 RMK A01 T03060130  RH  034%=      5-min Rain = 0
KHA2 120105Z 16013KT 31/13 A3006 RMK A01 T03060131  RH  034%=      5-min Rain = 0
KHA2 120106Z 16016KT 31/13 A3006 RMK A01 T03060131  RH  034%=      5-min Rain = 0
KHA2 120107Z 17015KT 31/13 A3006 RMK A01 T03060131  RH  034%=      5-min Rain = 0
KHA2 120108Z 17013KT 31/13 A3006 RMK A01 T03050131  RH  034%=      5-min Rain = 0
KHA2 120109Z 17013KT 31/13 A3006 RMK A01 T03050132  RH  035%=      5-min Rain = 0
KHA2 120110Z 17014KT 30/13 A3006 RMK A01 T03040132  RH  035%=      5-min Rain = 0
KHA2 120111Z 16013KT 30/13 A3006 RMK A01 T03040133  RH  035%=      5-min Rain = 0
KHA2 120112Z 16012KT 30/13 A3006 RMK A01 T03040133  RH  035%=      5-min Rain = 0
KHA2 120113Z 16014KT 30/13 A3006 RMK A01 T03030133  RH  035%=      5-min Rain = 0
KHA2 120114Z 16015KT 30/13 A3006 RMK A01 T03030132  RH  035%=      5-min Rain = 0
KHA2 120115Z 16015KT 30/13 A3006 RMK A01 T03030132  RH  035%=      5-min Rain = 0
KHA2 120116Z 16013KT 30/13 A3006 RMK A01 T03020132  RH  035%=      5-min Rain = 0
KHA2 120117Z 16015KT 30/13 A3006 RMK A01 T03020132  RH  035%=      5-min Rain = 0
KHA2 120118Z 16014KT 30/13 A3006 RMK A01 T03020131  RH  035%=      5-min Rain = 0
KHA2 120119Z 16014KT 30/13 A3006 RMK A01 T03010131  RH  035%=      5-min Rain = 0
KHA2 120120Z 16016KT 30/13 A3007 RMK A01 T03010131  RH  035%=      5-min Rain = 0
KHA2 120121Z 16016KT 30/13 A3007 RMK A01 T03010129  RH  035%=      5-min Rain = 0
KHA2 120122Z 16013KT 30/13 A3007 RMK A01 T03010129  RH  035%=      5-min Rain = 0
KHA2 120123Z 16014KT 30/13 A3007 RMK A01 T03010130  RH  035%=      5-min Rain = 0
KHA2 120124Z 16013KT 30/13 A3007 RMK A01 T03010130  RH  035%=      5-min Rain = 0
KHA2 120125Z 16013KT 30/13 A3007 RMK A01 T03000130  RH  035%=      5-min Rain = 0
KHA2 120126Z 17012KT 30/13 A3007 RMK A01 T02990130  RH  036%=      5-min Rain = 0
KHA2 120127Z 17012KT 30/13 A3007 RMK A01 T02980130  RH  036%=      5-min Rain = 0
KHA2 120128Z 16012KT 30/13 A3007 RMK A01 T02980131  RH  036%=      5-min Rain = 0
KHA2 120129Z 17013KT 30/13 A3007 RMK A01 T02970131  RH  036%=      5-min Rain = 0
KHA2 120130Z 16013KT 30/13 A3007 RMK A01 T02970131  RH  036%=      5-min Rain = 0
KHA2 120131Z 16012KT 30/13 A3007 RMK A01 T02960131  RH  036%=      5-min Rain = 0
KHA2 120132Z 16013KT 30/13 A3007 RMK A01 T02960131  RH  036%=      5-min Rain = 0
KHA2 120133Z 16014KT 30/13 A3007 RMK A01 T02960131  RH  036%=      5-min Rain = 0
KHA2 120134Z 16015KT 30/13 A3007 RMK A01 T02950131  RH  037%=      5-min Rain = 0
KHA2 120135Z 16014KT 30/13 A3007 RMK A01 T02950132  RH  037%=      5-min Rain = 0
KHA2 120136Z 16014KT 29/13 A3007 RMK A01 T02940132  RH  037%=      5-min Rain = 0
KHA2 120137Z 16013KT 29/13 A3007 RMK A01 T02940132  RH  037%=      5-min Rain = 0
KHA2 120138Z 17012KT 29/13 A3007 RMK A01 T02930132  RH  037%=      5-min Rain = 0
KHA2 120139Z 16012KT 29/13 A3007 RMK A01 T02920132  RH  037%=      5-min Rain = 0
KHA2 120140Z 16014KT 29/13 A3007 RMK A01 T02920132  RH  037%=      5-min Rain = 0
KHA2 120141Z 17013KT 29/13 A3007 RMK A01 T02910132  RH  037%=      5-min Rain = 0
KHA2 120142Z 16014KT 29/13 A3007 RMK A01 T02910132  RH  038%=      5-min Rain = 0
KHA2 120143Z 16014KT 29/13 A3007 RMK A01 T02900131  RH  038%=      5-min Rain = 0
KHA2 120144Z 16013KT 29/13 A3007 RMK A01 T02910131  RH  038%=      5-min Rain = 0
KHA2 120145Z 17013KT 29/13 A3007 RMK A01 T02910132  RH  038%=      5-min Rain = 0
KHA2 120146Z 17013KT 29/13 A3007 RMK A01 T02900132  RH  038%=      5-min Rain = 0
KHA2 120147Z 16013KT 29/13 A3007 RMK A01 T02900132  RH  038%=      5-min Rain = 0
KHA2 120148Z 17013KT 29/13 A3007 RMK A01 T02890132  RH  038%=      5-min Rain = 0
KHA2 120149Z 17012KT 29/13 A3007 RMK A01 T02890132  RH  038%=      5-min Rain = 0
KHA2 120150Z 17012KT 29/13 A3007 RMK A01 T02880132  RH  038%=      5-min Rain = 0
KHA2 120151Z 17013KT 29/13 A3007 RMK A01 T02880132  RH  038%=      5-min Rain = 0
KHA2 120152Z 16013KT 29/13 A3007 RMK A01 T02880132  RH  038%=      5-min Rain = 0
KHA2 120153Z 16012KT 29/13 A3007 RMK A01 T02880131  RH  038%=      5-min Rain = 0
KHA2 120154Z 16012KT 29/13 A3007 RMK A01 T02880132  RH  038%=      5-min Rain = 0
KHA2 120155Z 16013KT 29/13 A3007 RMK A01 T02870132  RH  038%=      5-min Rain = 0
KHA2 120156Z 16012KT 29/13 A3008 RMK A01 T02860131  RH  039%=      5-min Rain = 0
KHA2 120157Z 16013KT 29/13 A3008 RMK A01 T02860132  RH  039%=      5-min Rain = 0
KHA2 120158Z 17012KT 29/13 A3008 RMK A01 T02850132  RH  039%=      5-min Rain = 0
KHA2 120159Z 16012KT 28/13 A3008 RMK A01 T02840132  RH  039%=      5-min Rain = 0
KHA2 120200Z 16011KT 28/13 A3008 RMK A01 T02840132  RH  039%=      5-min Rain = 0
KHA2 120201Z 16011KT 28/13 A3008 RMK A01 T02830132  RH  039%=      5-min Rain = 0
KHA2 120202Z 17012KT 28/13 A3008 RMK A01 T02820132  RH  039%=      5-min Rain = 0
KHA2 120203Z 17011KT 28/13 A3008 RMK A01 T02820132  RH  040%=      5-min Rain = 0
KHA2 120204Z 17011KT 28/13 A3008 RMK A01 T02820132  RH  040%=      5-min Rain = 0
KHA2 120205Z 17011KT 28/13 A3008 RMK A01 T02820132  RH  040%=      5-min Rain = 0
KHA2 120206Z 17011KT 28/13 A3008 RMK A01 T02810132  RH  040%=      5-min Rain = 0
KHA2 120207Z 17011KT 28/13 A3008 RMK A01 T02810132  RH  040%=      5-min Rain = 0
KHA2 120208Z 16010KT 28/13 A3008 RMK A01 T02800132  RH  040%=      5-min Rain = 0
KHA2 120209Z 16010KT 28/13 A3008 RMK A01 T02800132  RH  040%=      5-min Rain = 0
KHA2 120210Z 16010KT 28/13 A3008 RMK A01 T02790132  RH  040%=      5-min Rain = 0
KHA2 120211Z 16010KT 28/13 A3008 RMK A01 T02790132  RH  040%=      5-min Rain = 0
KHA2 120212Z 16010KT 28/13 A3008 RMK A01 T02780132  RH  041%=      5-min Rain = 0
KHA2 120213Z 16009KT 28/13 A3008 RMK A01 T02770132  RH  041%=      5-min Rain = 0
KHA2 120214Z 16010KT 28/13 A3008 RMK A01 T02770132  RH  041%=      5-min Rain = 0
KHA2 120215Z 16010KT 28/13 A3008 RMK A01 T02760132  RH  041%=      5-min Rain = 0
KHA2 120216Z 16010KT 28/13 A3008 RMK A01 T02750132  RH  041%=      5-min Rain = 0
KHA2 120217Z 16010KT 28/13 A3008 RMK A01 T02750132  RH  041%=      5-min Rain = 0
KHA2 120218Z 16010KT 28/13 A3008 RMK A01 T02750132  RH  041%=      5-min Rain = 0
KHA2 120219Z 16010KT 27/13 A3008 RMK A01 T02740132  RH  041%=      5-min Rain = 0
KHA2 120220Z 16009KT 27/13 A3008 RMK A01 T02740132  RH  042%=      5-min Rain = 0
KHA2 120221Z 16009KT 27/13 A3008 RMK A01 T02730132  RH  042%=      5-min Rain = 0
KHA2 120222Z 16009KT 27/13 A3008 RMK A01 T02720132  RH  042%=      5-min Rain = 0
KHA2 120223Z 16009KT 27/13 A3008 RMK A01 T02720132  RH  042%=      5-min Rain = 0
KHA2 120224Z 16009KT 27/13 A3008 RMK A01 T02710132  RH  042%=      5-min Rain = 0
KHA2 120225Z 16009KT 27/13 A3008 RMK A01 T02710132  RH  042%=      5-min Rain = 0
KHA2 120226Z 16009KT 27/13 A3008 RMK A01 T02710132  RH  042%=      5-min Rain = 0
KHA2 120227Z 16009KT 27/13 A3008 RMK A01 T02700132  RH  042%=      5-min Rain = 0
KHA2 120228Z 16009KT 27/13 A3008 RMK A01 T02710132  RH  042%=      5-min Rain = 0
KHA2 120229Z 16009KT 27/13 A3009 RMK A01 T02710132  RH  042%=      5-min Rain = 0
KHA2 120230Z 16009KT 27/13 A3009 RMK A01 T02700132  RH  043%=      5-min Rain = 0
KHA2 120231Z 16009KT 27/13 A3009 RMK A01 T02700132  RH  043%=      5-min Rain = 0
KHA2 120232Z 16009KT 27/13 A3009 RMK A01 T02700132  RH  043%=      5-min Rain = 0
KHA2 120233Z 16009KT 27/13 A3009 RMK A01 T02700132  RH  043%=      5-min Rain = 0
KHA2 120234Z 16009KT 27/13 A3009 RMK A01 T02690132  RH  043%=      5-min Rain = 0
KHA2 120235Z 16008KT 27/13 A3009 RMK A01 T02690132  RH  043%=      5-min Rain = 0
KHA2 120236Z 16009KT 27/13 A3009 RMK A01 T02690133  RH  043%=      5-min Rain = 0
KHA2 120237Z 16008KT 27/13 A3009 RMK A01 T02690133  RH  043%=      5-min Rain = 0
KHA2 120238Z 16009KT 27/13 A3009 RMK A01 T02680133  RH  043%=      5-min Rain = 0
KHA2 120239Z 16009KT 27/13 A3009 RMK A01 T02680133  RH  043%=      5-min Rain = 0
KHA2 120240Z 16009KT 27/13 A3009 RMK A01 T02680133  RH  043%=      5-min Rain = 0
KHA2 120241Z 16009KT 27/13 A3009 RMK A01 T02680133  RH  043%=      5-min Rain = 0
KHA2 120242Z 16009KT 27/13 A3009 RMK A01 T02680133  RH  043%=      5-min Rain = 0
KHA2 120243Z 16008KT 27/13 A3009 RMK A01 T02680133  RH  043%=      5-min Rain = 0
KHA2 120244Z 16008KT 27/13 A3009 RMK A01 T02670133  RH  044%=      5-min Rain = 0
KHA2 120245Z 16009KT 27/13 A301 RMK A01 T02670133  RH  044%=      5-min Rain = 0
KHA2 120246Z 17009KT 27/13 A301 RMK A01 T02670133  RH  044%=      5-min Rain = 0
KHA2 120247Z 16009KT 27/13 A301 RMK A01 T02670133  RH  044%=      5-min Rain = 0
KHA2 120248Z 17009KT 27/13 A301 RMK A01 T02670134  RH  044%=      5-min Rain = 0
KHA2 120249Z 17008KT 27/13 A301 RMK A01 T02660134  RH  044%=      5-min Rain = 0
KHA2 120250Z 17009KT 27/13 A301 RMK A01 T02660134  RH  044%=      5-min Rain = 0
KHA2 120251Z 17009KT 27/13 A301 RMK A01 T02660134  RH  044%=      5-min Rain = 0
KHA2 120252Z 17008KT 27/13 A301 RMK A01 T02660134  RH  044%=      5-min Rain = 0
KHA2 120253Z 17009KT 26/13 A301 RMK A01 T02640134  RH  044%=      5-min Rain = 0
KHA2 120254Z 18008KT 26/13 A301 RMK A01 T02640134  RH  045%=      5-min Rain = 0
KHA2 120255Z 18009KT 26/13 A301 RMK A01 T02630134  RH  045%=      5-min Rain = 0
KHA2 120256Z 18009KT 26/13 A301 RMK A01 T02630134  RH  045%=      5-min Rain = 0
KHA2 120257Z 18010KT 26/13 A301 RMK A01 T02620134  RH  045%=      5-min Rain = 0
KHA2 120258Z 18010KT 26/13 A301 RMK A01 T02620134  RH  045%=      5-min Rain = 0
KHA2 120259Z 17009KT 26/14 A301 RMK A01 T02620135  RH  045%=      5-min Rain = 0
KHA2 120300Z 17009KT 26/14 A301 RMK A01 T02620135  RH  045%=      5-min Rain = 0
KHA2 120301Z 17009KT 26/14 A301 RMK A01 T02620135  RH  046%=      5-min Rain = 0
KHA2 120302Z 17009KT 26/14 A301 RMK A01 T02610135  RH  046%=      5-min Rain = 0
KHA2 120303Z 16009KT 26/14 A301 RMK A01 T02610135  RH  046%=      5-min Rain = 0
KHA2 120304Z 16009KT 26/14 A301 RMK A01 T02600135  RH  046%=      5-min Rain = 0
KHA2 120305Z 16009KT 26/14 A301 RMK A01 T02600135  RH  046%=      5-min Rain = 0
KHA2 120306Z 16009KT 26/14 A301 RMK A01 T02600135  RH  046%=      5-min Rain = 0
KHA2 120307Z 16008KT 26/14 A301 RMK A01 T02600135  RH  046%=      5-min Rain = 0
KHA2 120308Z 16009KT 26/14 A301 RMK A01 T02600135  RH  046%=      5-min Rain = 0
KHA2 120309Z 17008KT 26/14 A3011 RMK A01 T02590135  RH  046%=      5-min Rain = 0
KHA2 120310Z 17008KT 26/14 A3011 RMK A01 T02580135  RH  047%=      5-min Rain = 0
KHA2 120311Z 17009KT 26/14 A3011 RMK A01 T02570135  RH  047%=      5-min Rain = 0
KHA2 120312Z 17008KT 26/14 A3011 RMK A01 T02560135  RH  047%=      5-min Rain = 0
KHA2 120313Z 17009KT 26/14 A3011 RMK A01 T02560135  RH  047%=      5-min Rain = 0
KHA2 120314Z 17009KT 26/14 A3011 RMK A01 T02550136  RH  047%=      5-min Rain = 0
KHA2 120315Z 17009KT 25/14 A3011 RMK A01 T02540136  RH  048%=      5-min Rain = 0
KHA2 120316Z 18009KT 25/14 A3011 RMK A01 T02530136  RH  048%=      5-min Rain = 0
KHA2 120317Z 18009KT 25/14 A3011 RMK A01 T02530136  RH  048%=      5-min Rain = 0
KHA2 120318Z 18009KT 25/14 A3011 RMK A01 T02530137  RH  048%=      5-min Rain = 0
KHA2 120319Z 18009KT 25/14 A3011 RMK A01 T02530137  RH  049%=      5-min Rain = 0
KHA2 120320Z 18009KT 25/14 A3011 RMK A01 T02520137  RH  049%=      5-min Rain = 0
KHA2 120321Z 17009KT 25/14 A3011 RMK A01 T02520137  RH  049%=      5-min Rain = 0
KHA2 120322Z 17009KT 25/14 A3011 RMK A01 T02510137  RH  049%=      5-min Rain = 0
KHA2 120323Z 17009KT 25/14 A3011 RMK A01 T02520138  RH  049%=      5-min Rain = 0
KHA2 120324Z 17009KT 25/14 A3011 RMK A01 T02520138  RH  049%=      5-min Rain = 0
KHA2 120325Z 16009KT 25/14 A3011 RMK A01 T02530138  RH  049%=      5-min Rain = 0
KHA2 120326Z 17010KT 25/14 A3011 RMK A01 T02530139  RH  049%=      5-min Rain = 0
KHA2 120327Z 17009KT 25/14 A3011 RMK A01 T02530139  RH  049%=      5-min Rain = 0
KHA2 120328Z 17010KT 25/14 A3011 RMK A01 T02540139  RH  049%=      5-min Rain = 0
KHA2 120329Z 18010KT 25/14 A3011 RMK A01 T02540139  RH  049%=      5-min Rain = 0
KHA2 120330Z 18012KT 26/14 A3011 RMK A01 T02550140  RH  049%=      5-min Rain = 0
KHA2 120331Z 18011KT 26/14 A3011 RMK A01 T02570141  RH  049%=      5-min Rain = 0
KHA2 120332Z 18012KT 26/14 A3011 RMK A01 T02580141  RH  049%=      5-min Rain = 0
KHA2 120333Z 18011KT 26/14 A3011 RMK A01 T02580142  RH  049%=      5-min Rain = 0
KHA2 120334Z 18011KT 26/14 A3011 RMK A01 T02590142  RH  049%=      5-min Rain = 0
KHA2 120335Z 18012KT 26/14 A3011 RMK A01 T02590142  RH  048%=      5-min Rain = 0
KHA2 120336Z 18011KT 26/14 A3012 RMK A01 T02600143  RH  048%=      5-min Rain = 0
KHA2 120337Z 18012KT 26/14 A3012 RMK A01 T02590143  RH  049%=      5-min Rain = 0
KHA2 120338Z 18011KT 26/14 A3012 RMK A01 T02590144  RH  049%=      5-min Rain = 0
KHA2 120339Z 18011KT 26/14 A3012 RMK A01 T02590144  RH  049%=      5-min Rain = 0
KHA2 120340Z 17011KT 26/14 A3012 RMK A01 T02590144  RH  049%=      5-min Rain = 0
KHA2 120341Z 17011KT 26/14 A3012 RMK A01 T02590144  RH  049%=      5-min Rain = 0
KHA2 120342Z 18011KT 26/14 A3012 RMK A01 T02590144  RH  049%=      5-min Rain = 0
KHA2 120343Z 18010KT 26/14 A3012 RMK A01 T02590144  RH  049%=      5-min Rain = 0
KHA2 120344Z 18011KT 26/14 A3012 RMK A01 T02580144  RH  049%=      5-min Rain = 0
KHA2 120345Z 18011KT 26/14 A3012 RMK A01 T02590144  RH  049%=      5-min Rain = 0
KHA2 120346Z 17010KT 26/14 A3012 RMK A01 T02590143  RH  049%=      5-min Rain = 0
KHA2 120347Z 17012KT 26/14 A3012 RMK A01 T02590144  RH  049%=      5-min Rain = 0
KHA2 120348Z 17012KT 26/14 A3012 RMK A01 T02600144  RH  049%=      5-min Rain = 0
KHA2 120349Z 17011KT 26/15 A3012 RMK A01 T02600145  RH  049%=      5-min Rain = 0
KHA2 120350Z 17011KT 26/15 A3012 RMK A01 T02600145  RH  049%=      5-min Rain = 0
KHA2 120351Z 17012KT 26/15 A3012 RMK A01 T02600146  RH  049%=      5-min Rain = 0
KHA2 120352Z 17012KT 26/15 A3012 RMK A01 T02600146  RH  049%=      5-min Rain = 0
KHA2 120353Z 17011KT 26/15 A3012 RMK A01 T02600146  RH  049%=      5-min Rain = 0
KHA2 120354Z 17013KT 26/15 A3012 RMK A01 T02600145  RH  049%=      5-min Rain = 0
KHA2 120355Z 17013KT 26/15 A3012 RMK A01 T02610146  RH  049%=      5-min Rain = 0
KHA2 120356Z 17012KT 26/15 A3012 RMK A01 T02620145  RH  049%=      5-min Rain = 0
KHA2 120357Z 17011KT 26/15 A3012 RMK A01 T02620146  RH  049%=      5-min Rain = 0
KHA2 120358Z 17013KT 26/15 A3012 RMK A01 T02620146  RH  049%=      5-min Rain = 0
KHA2 120359Z 17012KT 26/15 A3012 RMK A01 T02630146  RH  048%=      5-min Rain = 0
KHA2 120400Z 17011KT 26/15 A3012 RMK A01 T02630146  RH  048%=      5-min Rain = 0
KHA2 120401Z 17013KT 26/15 A3012 RMK A01 T02630146  RH  048%=      5-min Rain = 0
KHA2 120402Z 16013KT 26/15 A3012 RMK A01 T02630146  RH  048%=      5-min Rain = 0
KHA2 120403Z 17013KT 26/15 A3012 RMK A01 T02640146  RH  048%=      5-min Rain = 0
KHA2 120404Z 16013KT 27/15 A3012 RMK A01 T02650147  RH  048%=      5-min Rain = 0
KHA2 120405Z 17013KT 27/15 A3012 RMK A01 T02650147  RH  048%=      5-min Rain = 0
KHA2 120406Z 17013KT 26/15 A3012 RMK A01 T02640147  RH  048%=      5-min Rain = 0
KHA2 120407Z 17012KT 27/15 A3012 RMK A01 T02650147  RH  048%=      5-min Rain = 0
KHA2 120408Z 17011KT 26/15 A3012 RMK A01 T02640147  RH  048%=      5-min Rain = 0
KHA2 120409Z 17012KT 26/15 A3012 RMK A01 T02640147  RH  048%=      5-min Rain = 0
KHA2 120410Z 17012KT 26/15 A3012 RMK A01 T02640147  RH  048%=      5-min Rain = 0
KHA2 120411Z 17010KT 26/15 A3012 RMK A01 T02640147  RH  048%=      5-min Rain = 0
KHA2 120412Z 17011KT 26/15 A3012 RMK A01 T02640147  RH  048%=      5-min Rain = 0
KHA2 120413Z 17010KT 26/15 A3012 RMK A01 T02640146  RH  048%=      5-min Rain = 0
KHA2 120414Z 16011KT 26/15 A3012 RMK A01 T02640146  RH  048%=      5-min Rain = 0
KHA2 120415Z 16010KT 26/15 A3012 RMK A01 T02640146  RH  048%=      5-min Rain = 0
KHA2 120416Z 16011KT 26/15 A3012 RMK A01 T02640146  RH  048%=      5-min Rain = 0
KHA2 120417Z 16011KT 26/15 A3012 RMK A01 T02640145  RH  048%=      5-min Rain = 0
KHA2 120418Z 16010KT 27/15 A3012 RMK A01 T02650145  RH  048%=      5-min Rain = 0
KHA2 120419Z 15010KT 27/15 A3012 RMK A01 T02650145  RH  048%=      5-min Rain = 0
KHA2 120420Z 15010KT 26/15 A3012 RMK A01 T02640145  RH  048%=      5-min Rain = 0
KHA2 120421Z 15010KT 26/15 A3012 RMK A01 T02640145  RH  048%=      5-min Rain = 0
KHA2 120422Z 15010KT 26/15 A3012 RMK A01 T02640145  RH  048%=      5-min Rain = 0
KHA2 120423Z 15009KT 26/15 A3012 RMK A01 T02640145  RH  048%=      5-min Rain = 0
KHA2 120424Z 15009KT 26/15 A3012 RMK A01 T02640145  RH  048%=      5-min Rain = 0
KHA2 120425Z 15010KT 26/14 A3012 RMK A01 T02640144  RH  048%=      5-min Rain = 0
KHA2 120426Z 15010KT 26/14 A3012 RMK A01 T02640144  RH  047%=      5-min Rain = 0
KHA2 120427Z 15009KT 27/14 A3012 RMK A01 T02650144  RH  048%=      5-min Rain = 0
KHA2 120428Z 15008KT 26/14 A3011 RMK A01 T02640144  RH  048%=      5-min Rain = 0
KHA2 120429Z 15009KT 26/14 A3011 RMK A01 T02630144  RH  048%=      5-min Rain = 0
KHA2 120430Z 15009KT 26/14 A3011 RMK A01 T02620143  RH  048%=      5-min Rain = 0
KHA2 120431Z 16009KT 26/14 A3011 RMK A01 T02620143  RH  048%=      5-min Rain = 0
KHA2 120432Z 15009KT 26/14 A3011 RMK A01 T02620143  RH  048%=      5-min Rain = 0
KHA2 120433Z 16009KT 26/14 A3011 RMK A01 T02620143  RH  048%=      5-min Rain = 0
KHA2 120434Z 16009KT 26/14 A3012 RMK A01 T02610143  RH  048%=      5-min Rain = 0
KHA2 120435Z 16009KT 26/14 A3012 RMK A01 T02610143  RH  048%=      5-min Rain = 0
KHA2 120436Z 16009KT 26/14 A3012 RMK A01 T02610143  RH  048%=      5-min Rain = 0
KHA2 120437Z 16009KT 26/14 A3012 RMK A01 T02600143  RH  048%=      5-min Rain = 0
KHA2 120438Z 16009KT 26/14 A3012 RMK A01 T02600143  RH  048%=      5-min Rain = 0
KHA2 120439Z 15010KT 26/14 A3012 RMK A01 T02590142  RH  048%=      5-min Rain = 0
KHA2 120440Z 15010KT 26/14 A3012 RMK A01 T02590142  RH  048%=      5-min Rain = 0
KHA2 120441Z 15010KT 26/14 A3012 RMK A01 T02600142  RH  048%=      5-min Rain = 0
KHA2 120442Z 16010KT 26/14 A3012 RMK A01 T02610142  RH  048%=      5-min Rain = 0
KHA2 120443Z 16011KT 26/14 A3012 RMK A01 T02610143  RH  048%=      5-min Rain = 0
KHA2 120444Z 16010KT 26/14 A3012 RMK A01 T02610142  RH  048%=      5-min Rain = 0
KHA2 120445Z 16010KT 26/14 A3012 RMK A01 T02620143  RH  048%=      5-min Rain = 0
KHA2 120446Z 16011KT 26/14 A3012 RMK A01 T02620143  RH  048%=      5-min Rain = 0
KHA2 120447Z 16012KT 26/14 A3012 RMK A01 T02620143  RH  048%=      5-min Rain = 0
KHA2 120448Z 16013KT 26/14 A3012 RMK A01 T02630143  RH  047%=      5-min Rain = 0
KHA2 120449Z 16012KT 26/14 A3012 RMK A01 T02640143  RH  047%=      5-min Rain = 0
KHA2 120450Z 16014KT 26/14 A3012 RMK A01 T02640143  RH  047%=      5-min Rain = 0
KHA2 120451Z 16013KT 27/14 A3012 RMK A01 T02650143  RH  047%=      5-min Rain = 0
KHA2 120452Z 16013KT 27/14 A3012 RMK A01 T02650143  RH  047%=      5-min Rain = 0
KHA2 120453Z 16013KT 27/14 A3012 RMK A01 T02660143  RH  047%=      5-min Rain = 0
KHA2 120454Z 16012KT 27/14 A3012 RMK A01 T02660143  RH  047%=      5-min Rain = 0
KHA2 120455Z 16014KT 27/14 A3012 RMK A01 T02660143  RH  047%=      5-min Rain = 0
KHA2 120456Z 16014KT 27/14 A3012 RMK A01 T02670143  RH  047%=      5-min Rain = 0
KHA2 120457Z 16014KT 27/14 A3012 RMK A01 T02670144  RH  047%=      5-min Rain = 0
KHA2 120458Z 16014KT 27/14 A3012 RMK A01 T02680144  RH  047%=      5-min Rain = 0
KHA2 120459Z 16015KT 27/14 A3012 RMK A01 T02680144  RH  047%=      5-min Rain = 0
KHA2 120500Z 16014KT 27/14 A3012 RMK A01 T02680144  RH  047%=      5-min Rain = 0

Page generated in 0.035 seconds.